Time,TemperatureF,DewpointF,PressureIn,WindDirection,WindDirectionDegrees,WindSpeedMPH,WindSpeedGustMPH,Humidity,HourlyPrecipIn,Conditions,Clouds,dailyrainin,SoftwareType,DateUTC
2013-01-24 00:00:00,33.6,8.6,30.20,NNE,22,3.1,3.1,37,0.00,,,0.00,WUHU21636XXSP,2013-01-24 07:00:00,
2013-01-24 00:03:00,33.6,8.6,30.20,NE,45,0.6,3.1,37,0.00,,,0.00,WUHU21636XXSP,2013-01-24 07:03:00,
2013-01-24 00:04:00,33.6,8.6,30.21,NE,45,0.2,3.1,37,0.00,,,0.00,WUHU21636XXSP,2013-01-24 07:04:00,
2013-01-24 00:05:00,33.6,8.6,30.20,WSW,247,0.0,3.1,37,0.00,,,0.00,WUHU21636XXSP,2013-01-24 07:05:00,
2013-01-24 00:08:00,33.6,8.6,30.20,WSW,247,0.0,3.1,39,0.00,,,0.00,WUHU21636XXSP,2013-01-24 07:08:00,
2013-01-24 00:09:00,33.6,8.6,30.20,WSW,247,0.0,3.1,39,0.00,,,0.00,WUHU21636XXSP,2013-01-24 07:09:00,
2013-01-24 00:10:00,33.6,8.6,30.20,WSW,247,0.0,1.5,39,0.00,,,0.00,WUHU21636XXSP,2013-01-24 07:10:00,
2013-01-24 00:13:00,33.6,8.6,30.20,WSW,247,0.0,0.0,39,0.00,,,0.00,WUHU21636XXSP,2013-01-24 07:13:00,
2013-01-24 00:14:00,33.6,8.6,30.20,WSW,247,0.0,0.0,39,0.00,,,0.00,WUHU21636XXSP,2013-01-24 07:14:00,
2013-01-24 00:15:00,33.6,8.6,30.20,WSW,247,0.0,0.0,39,0.00,,,0.00,WUHU21636XXSP,2013-01-24 07:15:00,
2013-01-24 00:19:00,33.4,11.7,30.20,WSW,247,0.0,0.0,40,0.00,,,0.00,WUHU21636XXSP,2013-01-24 07:19:00,
2013-01-24 00:20:00,33.4,11.7,30.20,WSW,247,0.0,0.0,40,0.00,,,0.00,WUHU21636XXSP,2013-01-24 07:20:00,
2013-01-24 00:21:00,33.4,11.7,30.20,WSW,247,0.0,0.0,40,0.00,,,0.00,WUHU21636XXSP,2013-01-24 07:21:00,
2013-01-24 00:24:00,33.4,11.7,30.20,North,0,3.5,3.5,41,0.00,,,0.00,WUHU21636XXSP,2013-01-24 07:24:00,
2013-01-24 00:25:00,33.4,11.7,30.20,North,0,3.5,3.5,41,0.00,,,0.00,WUHU21636XXSP,2013-01-24 07:25:00,
2013-01-24 00:26:00,33.4,11.7,30.20,North,0,2.6,3.5,41,0.00,,,0.00,WUHU21636XXSP,2013-01-24 07:26:00,
2013-01-24 00:29:00,33.4,11.7,30.20,North,0,0.0,3.5,41,0.00,,,0.00,WUHU21636XXSP,2013-01-24 07:29:00,
2013-01-24 00:30:00,33.4,11.7,30.20,NNE,22,2.9,3.5,40,0.00,,,0.00,WUHU21636XXSP,2013-01-24 07:30:00,
2013-01-24 00:31:00,33.4,11.7,30.19,NNE,22,2.9,3.5,40,0.00,,,0.00,WUHU21636XXSP,2013-01-24 07:31:00,
2013-01-24 00:34:00,33.4,11.7,30.20,NE,45,0.0,3.5,41,0.00,,,0.00,WUHU21636XXSP,2013-01-24 07:34:00,
2013-01-24 00:36:00,33.3,11.5,30.20,NNW,337,0.0,2.9,40,0.00,,,0.00,WUHU21636XXSP,2013-01-24 07:36:00,
2013-01-24 00:39:00,33.1,11.3,30.19,NNW,337,1.8,2.9,40,0.00,,,0.00,WUHU21636XXSP,2013-01-24 07:39:00,
2013-01-24 00:41:00,33.1,11.3,30.19,NE,45,0.0,2.9,41,0.00,,,0.00,WUHU21636XXSP,2013-01-24 07:41:00,
2013-01-24 00:42:00,33.1,11.3,30.19,NE,45,0.0,2.9,41,0.00,,,0.00,WUHU21636XXSP,2013-01-24 07:42:00,
2013-01-24 00:44:00,33.1,11.3,30.19,NE,45,2.2,2.6,41,0.00,,,0.00,WUHU21636XXSP,2013-01-24 07:44:00,
2013-01-24 00:46:00,33.1,11.3,30.19,NNE,22,1.9,2.6,41,0.00,,,0.00,WUHU21636XXSP,2013-01-24 07:46:00,
2013-01-24 00:47:00,33.1,11.3,30.19,NNW,337,1.5,2.6,41,0.00,,,0.00,WUHU21636XXSP,2013-01-24 07:47:00,
2013-01-24 00:49:00,33.1,11.3,30.19,North,0,0.0,2.2,41,0.00,,,0.00,WUHU21636XXSP,2013-01-24 07:49:00,
2013-01-24 00:50:00,33.1,11.3,30.19,North,0,0.0,2.2,41,0.00,,,0.00,WUHU21636XXSP,2013-01-24 07:50:00,
2013-01-24 00:51:00,33.1,11.3,30.19,North,0,0.0,2.2,41,0.00,,,0.00,WUHU21636XXSP,2013-01-24 07:51:00,
2013-01-24 00:52:00,32.9,11.1,30.19,North,0,0.0,2.2,40,0.00,,,0.00,WUHU21636XXSP,2013-01-24 07:52:00,
2013-01-24 00:54:00,32.9,11.1,30.19,North,0,0.0,2.2,40,0.00,,,0.00,WUHU21636XXSP,2013-01-24 07:54:00,
2013-01-24 00:55:00,32.9,11.1,30.19,North,0,0.0,2.2,40,0.00,,,0.00,WUHU21636XXSP,2013-01-24 07:55:00,
2013-01-24 00:56:00,32.9,11.1,30.18,NNE,22,0.0,1.5,41,0.00,,,0.00,WUHU21636XXSP,2013-01-24 07:56:00,
2013-01-24 00:57:00,32.9,11.1,30.18,NNE,22,0.0,0.0,41,0.00,,,0.00,WUHU21636XXSP,2013-01-24 07:57:00,
2013-01-24 00:59:00,32.7,10.9,30.18,NNE,22,0.0,0.0,40,0.00,,,0.00,WUHU21636XXSP,2013-01-24 07:59:00,
2013-01-24 01:00:00,32.7,10.9,30.18,NE,45,0.0,0.0,40,0.00,,,0.00,WUHU21636XXSP,2013-01-24 08:00:00,
2013-01-24 01:01:00,32.7,10.9,30.18,NE,45,0.0,0.0,40,0.00,,,0.00,WUHU21636XXSP,2013-01-24 08:01:00,
2013-01-24 01:02:00,32.7,10.9,30.18,NNE,22,0.0,0.0,41,0.00,,,0.00,WUHU21636XXSP,2013-01-24 08:02:00,
2013-01-24 01:05:00,32.7,10.9,30.18,NNE,22,3.5,3.5,41,0.00,,,0.00,WUHU21636XXSP,2013-01-24 08:05:00,
2013-01-24 01:06:00,32.7,10.9,30.18,NNE,22,3.5,3.5,41,0.00,,,0.00,WUHU21636XXSP,2013-01-24 08:06:00,
2013-01-24 01:07:00,32.7,10.9,30.18,NNE,22,2.3,3.5,41,0.00,,,0.00,WUHU21636XXSP,2013-01-24 08:07:00,
2013-01-24 01:10:00,32.7,10.9,30.18,East,90,0.0,3.5,41,0.00,,,0.00,WUHU21636XXSP,2013-01-24 08:10:00,
2013-01-24 01:11:00,32.7,10.9,30.18,NE,45,0.0,3.5,41,0.00,,,0.00,WUHU21636XXSP,2013-01-24 08:11:00,
2013-01-24 01:12:00,32.7,10.9,30.18,NE,45,0.0,3.5,41,0.00,,,0.00,WUHU21636XXSP,2013-01-24 08:12:00,
2013-01-24 01:15:00,32.5,11.8,30.18,NNE,22,1.5,3.5,42,0.00,,,0.00,WUHU21636XXSP,2013-01-24 08:15:00,
2013-01-24 01:16:00,32.5,11.8,30.19,NNE,22,0.6,3.5,42,0.00,,,0.00,WUHU21636XXSP,2013-01-24 08:16:00,
2013-01-24 01:17:00,32.5,11.8,30.19,NNE,22,0.0,1.5,42,0.00,,,0.00,WUHU21636XXSP,2013-01-24 08:17:00,
2013-01-24 01:20:00,32.5,11.8,30.18,NNE,22,0.0,1.5,42,0.00,,,0.00,WUHU21636XXSP,2013-01-24 08:20:00,
2013-01-24 01:21:00,32.5,11.8,30.18,NNE,22,0.0,1.5,42,0.00,,,0.00,WUHU21636XXSP,2013-01-24 08:21:00,
2013-01-24 01:22:00,32.5,11.8,30.18,NNE,22,0.0,1.5,42,0.00,,,0.00,WUHU21636XXSP,2013-01-24 08:22:00,
2013-01-24 01:25:00,32.5,11.8,30.18,NNE,22,0.0,0.0,42,0.00,,,0.00,WUHU21636XXSP,2013-01-24 08:25:00,
2013-01-24 01:27:00,32.4,11.7,30.18,NNE,22,0.0,0.0,42,0.00,,,0.00,WUHU21636XXSP,2013-01-24 08:27:00,
2013-01-24 01:30:00,32.2,12.0,30.18,NNE,22,0.0,0.0,43,0.00,,,0.00,WUHU21636XXSP,2013-01-24 08:30:00,
2013-01-24 01:32:00,32.2,12.0,30.18,NNE,22,0.0,0.0,43,0.00,,,0.00,WUHU21636XXSP,2013-01-24 08:32:00,
2013-01-24 01:33:00,32.0,11.8,30.18,NNE,22,0.0,0.0,43,0.00,,,0.00,WUHU21636XXSP,2013-01-24 08:33:00,
2013-01-24 01:36:00,31.8,11.1,30.18,NNE,22,0.0,0.0,42,0.00,,,0.00,WUHU21636XXSP,2013-01-24 08:36:00,
2013-01-24 01:37:00,31.8,11.1,30.17,NNE,22,0.0,0.0,43,0.00,,,0.00,WUHU21636XXSP,2013-01-24 08:37:00,
2013-01-24 01:38:00,31.8,11.1,30.17,NNE,22,0.0,0.0,43,0.00,,,0.00,WUHU21636XXSP,2013-01-24 08:38:00,
2013-01-24 01:41:00,31.8,11.1,30.17,NNE,22,0.0,0.0,43,0.00,,,0.00,WUHU21636XXSP,2013-01-24 08:41:00,
2013-01-24 01:42:00,31.6,11.5,30.16,NNE,22,0.0,0.0,43,0.00,,,0.00,WUHU21636XXSP,2013-01-24 08:42:00,
2013-01-24 01:43:00,31.6,11.5,30.16,NNE,22,0.0,0.0,43,0.00,,,0.00,WUHU21636XXSP,2013-01-24 08:43:00,
2013-01-24 01:46:00,31.6,11.5,30.17,NW,315,0.0,0.0,44,0.00,,,0.00,WUHU21636XXSP,2013-01-24 08:46:00,
2013-01-24 01:47:00,31.6,11.5,30.17,NW,315,0.0,0.0,44,0.00,,,0.00,WUHU21636XXSP,2013-01-24 08:47:00,
2013-01-24 01:48:00,31.5,12.4,30.17,NW,315,0.0,0.0,45,0.00,,,0.00,WUHU21636XXSP,2013-01-24 08:48:00,
2013-01-24 01:51:00,31.5,12.4,30.16,NW,315,0.0,0.0,44,0.00,,,0.00,WUHU21636XXSP,2013-01-24 08:51:00,
2013-01-24 01:52:00,31.5,12.4,30.17,NW,315,0.0,0.0,44,0.00,,,0.00,WUHU21636XXSP,2013-01-24 08:52:00,
2013-01-24 01:53:00,31.5,12.4,30.17,NW,315,0.0,0.0,44,0.00,,,0.00,WUHU21636XXSP,2013-01-24 08:53:00,
2013-01-24 01:56:00,31.3,12.2,30.17,NW,315,0.0,0.0,45,0.00,,,0.00,WUHU21636XXSP,2013-01-24 08:56:00,
2013-01-24 01:58:00,31.1,12.0,30.17,NW,315,0.0,0.0,45,0.00,,,0.00,WUHU21636XXSP,2013-01-24 08:58:00,
2013-01-24 01:59:00,31.1,12.0,30.17,NW,315,0.0,0.0,45,0.00,,,0.00,WUHU21636XXSP,2013-01-24 08:59:00,
2013-01-24 02:01:00,31.1,12.0,30.17,NW,315,0.0,0.0,45,0.00,,,0.00,WUHU21636XXSP,2013-01-24 09:01:00,
2013-01-24 02:03:00,30.9,12.4,30.17,NW,315,0.0,0.0,46,0.00,,,0.00,WUHU21636XXSP,2013-01-24 09:03:00,
2013-01-24 02:04:00,30.9,12.4,30.17,NW,315,0.0,0.0,46,0.00,,,0.00,WUHU21636XXSP,2013-01-24 09:04:00,
2013-01-24 02:06:00,30.9,12.4,30.17,NW,315,0.0,0.0,45,0.00,,,0.00,WUHU21636XXSP,2013-01-24 09:06:00,
2013-01-24 02:08:00,30.7,12.2,30.17,NW,315,0.0,0.0,46,0.00,,,0.00,WUHU21636XXSP,2013-01-24 09:08:00,
2013-01-24 02:09:00,30.7,12.2,30.17,NW,315,0.0,0.0,46,0.00,,,0.00,WUHU21636XXSP,2013-01-24 09:09:00,
2013-01-24 02:10:00,30.6,12.0,30.17,NW,315,0.0,0.0,46,0.00,,,0.00,WUHU21636XXSP,2013-01-24 09:10:00,
2013-01-24 02:11:00,30.6,12.0,30.17,NW,315,0.0,0.0,46,0.00,,,0.00,WUHU21636XXSP,2013-01-24 09:11:00,
2013-01-24 02:13:00,30.4,11.8,30.17,NW,315,0.0,0.0,46,0.00,,,0.00,WUHU21636XXSP,2013-01-24 09:13:00,
2013-01-24 02:14:00,30.4,11.8,30.16,NW,315,0.0,0.0,46,0.00,,,0.00,WUHU21636XXSP,2013-01-24 09:14:00,
2013-01-24 02:15:00,30.4,11.8,30.16,NW,315,0.0,0.0,46,0.00,,,0.00,WUHU21636XXSP,2013-01-24 09:15:00,
2013-01-24 02:16:00,30.4,11.8,30.16,NW,315,0.0,0.0,47,0.00,,,0.00,WUHU21636XXSP,2013-01-24 09:16:00,
2013-01-24 02:18:00,30.0,11.5,30.16,NW,315,0.0,0.0,46,0.00,,,0.00,WUHU21636XXSP,2013-01-24 09:18:00,
2013-01-24 02:19:00,30.0,11.5,30.17,NW,315,0.0,0.0,46,0.00,,,0.00,WUHU21636XXSP,2013-01-24 09:19:00,
2013-01-24 02:20:00,30.0,11.5,30.17,NW,315,0.0,0.0,47,0.00,,,0.00,WUHU21636XXSP,2013-01-24 09:20:00,
2013-01-24 02:21:00,30.0,11.5,30.17,NW,315,0.0,0.0,47,0.00,,,0.00,WUHU21636XXSP,2013-01-24 09:21:00,
2013-01-24 02:23:00,29.8,11.5,30.17,NW,315,0.0,0.0,46,0.00,,,0.00,WUHU21636XXSP,2013-01-24 09:23:00,
2013-01-24 02:24:00,29.8,11.5,30.17,NW,315,0.0,0.0,47,0.00,,,0.00,WUHU21636XXSP,2013-01-24 09:24:00,
2013-01-24 02:25:00,29.8,11.5,30.17,NW,315,0.0,0.0,47,0.00,,,0.00,WUHU21636XXSP,2013-01-24 09:25:00,
2013-01-24 02:26:00,29.8,11.5,30.16,NW,315,0.0,0.0,47,0.00,,,0.00,WUHU21636XXSP,2013-01-24 09:26:00,
2013-01-24 02:28:00,29.8,11.5,30.17,NW,315,0.0,0.0,47,0.00,,,0.00,WUHU21636XXSP,2013-01-24 09:28:00,
2013-01-24 02:29:00,29.5,11.7,30.17,NW,315,0.0,0.0,47,0.00,,,0.00,WUHU21636XXSP,2013-01-24 09:29:00,
2013-01-24 02:30:00,29.5,11.7,30.17,NW,315,0.0,0.0,47,0.00,,,0.00,WUHU21636XXSP,2013-01-24 09:30:00,
2013-01-24 02:31:00,29.5,11.7,30.17,NW,315,0.0,0.0,47,0.00,,,0.00,WUHU21636XXSP,2013-01-24 09:31:00,
2013-01-24 02:33:00,29.5,11.7,30.17,NW,315,0.0,0.0,46,0.00,,,0.00,WUHU21636XXSP,2013-01-24 09:33:00,
2013-01-24 02:35:00,29.5,11.7,30.17,NW,315,0.0,0.0,46,0.00,,,0.00,WUHU21636XXSP,2013-01-24 09:35:00,
2013-01-24 02:36:00,29.3,10.9,30.17,NW,315,0.0,0.0,46,0.00,,,0.00,WUHU21636XXSP,2013-01-24 09:36:00,
2013-01-24 02:38:00,29.1,11.3,30.16,NW,315,1.5,1.5,47,0.00,,,0.00,WUHU21636XXSP,2013-01-24 09:38:00,
2013-01-24 02:40:00,28.9,11.1,30.16,NW,315,1.1,1.5,47,0.00,,,0.00,WUHU21636XXSP,2013-01-24 09:40:00,
2013-01-24 02:41:00,28.9,11.1,30.16,NW,315,0.2,1.5,47,0.00,,,0.00,WUHU21636XXSP,2013-01-24 09:41:00,
2013-01-24 02:43:00,28.9,11.1,30.16,NW,315,0.0,1.5,47,0.00,,,0.00,WUHU21636XXSP,2013-01-24 09:43:00,
2013-01-24 02:45:00,28.8,10.9,30.16,NW,315,0.0,1.5,47,0.00,,,0.00,WUHU21636XXSP,2013-01-24 09:45:00,
2013-01-24 02:46:00,28.8,10.9,30.16,NW,315,0.0,1.5,47,0.00,,,0.00,WUHU21636XXSP,2013-01-24 09:46:00,
2013-01-24 02:47:00,28.8,10.9,30.16,NW,315,0.0,1.5,47,0.00,,,0.00,WUHU21636XXSP,2013-01-24 09:47:00,
2013-01-24 02:48:00,28.6,10.8,30.16,NW,315,0.0,1.5,47,0.00,,,0.00,WUHU21636XXSP,2013-01-24 09:48:00,
2013-01-24 02:50:00,28.6,10.8,30.16,NW,315,0.0,0.0,47,0.00,,,0.00,WUHU21636XXSP,2013-01-24 09:50:00,
2013-01-24 02:51:00,28.6,10.8,30.16,NW,315,0.0,0.0,47,0.00,,,0.00,WUHU21636XXSP,2013-01-24 09:51:00,
2013-01-24 02:52:00,28.6,10.8,30.16,NW,315,0.0,0.0,47,0.00,,,0.00,WUHU21636XXSP,2013-01-24 09:52:00,
2013-01-24 02:53:00,28.4,11.1,30.16,NW,315,0.0,0.0,48,0.00,,,0.00,WUHU21636XXSP,2013-01-24 09:53:00,
2013-01-24 02:55:00,28.4,11.1,30.16,NW,315,0.0,0.0,47,0.00,,,0.00,WUHU21636XXSP,2013-01-24 09:55:00,
2013-01-24 02:56:00,28.4,11.1,30.15,NW,315,0.0,0.0,47,0.00,,,0.00,WUHU21636XXSP,2013-01-24 09:56:00,
2013-01-24 02:57:00,28.2,10.4,30.15,NW,315,0.0,0.0,47,0.00,,,0.00,WUHU21636XXSP,2013-01-24 09:57:00,
2013-01-24 02:58:00,28.2,10.4,30.15,NW,315,0.0,0.0,47,0.00,,,0.00,WUHU21636XXSP,2013-01-24 09:58:00,
2013-01-24 03:00:00,28.2,10.4,30.15,NW,315,0.0,0.0,48,0.00,,,0.00,WUHU21636XXSP,2013-01-24 10:00:00,
2013-01-24 03:01:00,28.0,10.8,30.15,NW,315,0.0,0.0,48,0.00,,,0.00,WUHU21636XXSP,2013-01-24 10:01:00,
2013-01-24 03:02:00,28.0,10.8,30.15,NW,315,0.0,0.0,48,0.00,,,0.00,WUHU21636XXSP,2013-01-24 10:02:00,
2013-01-24 03:03:00,28.0,10.8,30.15,NW,315,0.0,0.0,47,0.00,,,0.00,WUHU21636XXSP,2013-01-24 10:03:00,
2013-01-24 03:05:00,28.0,10.8,30.15,NW,315,0.0,0.0,47,0.00,,,0.00,WUHU21636XXSP,2013-01-24 10:05:00,
2013-01-24 03:06:00,28.0,10.8,30.15,NW,315,2.6,2.6,48,0.00,,,0.00,WUHU21636XXSP,2013-01-24 10:06:00,
2013-01-24 03:07:00,28.0,10.8,30.15,NW,315,2.6,2.6,48,0.00,,,0.00,WUHU21636XXSP,2013-01-24 10:07:00,
2013-01-24 03:09:00,27.9,11.1,30.15,NW,315,0.7,2.6,49,0.00,,,0.00,WUHU21636XXSP,2013-01-24 10:09:00,
2013-01-24 03:10:00,27.5,10.8,30.15,NW,315,0.0,2.6,49,0.00,,,0.00,WUHU21636XXSP,2013-01-24 10:10:00,
2013-01-24 03:11:00,27.5,10.8,30.15,NW,315,0.0,2.6,49,0.00,,,0.00,WUHU21636XXSP,2013-01-24 10:11:00,
2013-01-24 03:12:00,27.5,10.8,30.15,NW,315,0.0,2.6,48,0.00,,,0.00,WUHU21636XXSP,2013-01-24 10:12:00,
2013-01-24 03:14:00,27.3,10.6,30.15,NW,315,0.8,2.6,49,0.00,,,0.00,WUHU21636XXSP,2013-01-24 10:14:00,
2013-01-24 03:15:00,27.3,10.6,30.15,NW,315,0.8,2.6,49,0.00,,,0.00,WUHU21636XXSP,2013-01-24 10:15:00,
2013-01-24 03:16:00,27.3,10.6,30.15,NW,315,0.5,2.6,49,0.00,,,0.00,WUHU21636XXSP,2013-01-24 10:16:00,
2013-01-24 03:17:00,27.3,10.6,30.15,NW,315,0.2,0.8,49,0.00,,,0.00,WUHU21636XXSP,2013-01-24 10:17:00,
2013-01-24 03:19:00,27.1,10.4,30.15,NW,315,0.0,0.8,49,0.00,,,0.00,WUHU21636XXSP,2013-01-24 10:19:00,
2013-01-24 03:20:00,27.1,10.4,30.15,NW,315,0.0,0.8,49,0.00,,,0.00,WUHU21636XXSP,2013-01-24 10:20:00,
2013-01-24 03:22:00,27.1,10.4,30.15,NW,315,0.0,0.8,49,0.00,,,0.00,WUHU21636XXSP,2013-01-24 10:22:00,
2013-01-24 03:24:00,27.1,10.4,30.15,NW,315,0.0,0.8,49,0.00,,,0.00,WUHU21636XXSP,2013-01-24 10:24:00,
2013-01-24 03:25:00,27.0,10.4,30.15,NW,315,0.0,0.8,50,0.00,,,0.00,WUHU21636XXSP,2013-01-24 10:25:00,
2013-01-24 03:27:00,27.0,10.4,30.15,NW,315,0.0,0.0,49,0.00,,,0.00,WUHU21636XXSP,2013-01-24 10:27:00,
2013-01-24 03:29:00,26.8,10.0,30.15,NW,315,0.0,0.0,49,0.00,,,0.00,WUHU21636XXSP,2013-01-24 10:29:00,
2013-01-24 03:30:00,26.8,10.0,30.16,NW,315,0.0,0.0,49,0.00,,,0.00,WUHU21636XXSP,2013-01-24 10:30:00,
2013-01-24 03:32:00,26.8,10.0,30.16,NW,315,0.0,0.0,50,0.00,,,0.00,WUHU21636XXSP,2013-01-24 10:32:00,
2013-01-24 03:34:00,26.8,10.0,30.16,NW,315,0.0,0.0,50,0.00,,,0.00,WUHU21636XXSP,2013-01-24 10:34:00,
2013-01-24 03:35:00,26.4,10.2,30.16,NW,315,0.0,0.0,50,0.00,,,0.00,WUHU21636XXSP,2013-01-24 10:35:00,
2013-01-24 03:37:00,26.4,10.2,30.16,NW,315,0.0,0.0,50,0.00,,,0.00,WUHU21636XXSP,2013-01-24 10:37:00,
2013-01-24 03:39:00,26.4,10.2,30.16,NW,315,0.0,0.0,51,0.00,,,0.00,WUHU21636XXSP,2013-01-24 10:39:00,
2013-01-24 03:41:00,26.2,10.4,30.15,NW,315,0.0,0.0,51,0.00,,,0.00,WUHU21636XXSP,2013-01-24 10:41:00,
2013-01-24 03:42:00,26.2,10.4,30.16,NW,315,0.0,0.0,51,0.00,,,0.00,WUHU21636XXSP,2013-01-24 10:42:00,
2013-01-24 03:44:00,25.9,10.0,30.15,NW,315,0.0,0.0,51,0.00,,,0.00,WUHU21636XXSP,2013-01-24 10:44:00,
2013-01-24 03:46:00,25.9,10.0,30.15,NE,45,0.0,0.0,51,0.00,,,0.00,WUHU21636XXSP,2013-01-24 10:46:00,
2013-01-24 03:47:00,25.9,10.0,30.15,NE,45,0.0,0.0,51,0.00,,,0.00,WUHU21636XXSP,2013-01-24 10:47:00,
2013-01-24 03:48:00,25.9,10.0,30.15,NE,45,0.0,0.0,51,0.00,,,0.00,WUHU21636XXSP,2013-01-24 10:48:00,
2013-01-24 03:49:00,25.7,9.5,30.15,NE,45,3.1,3.1,50,0.00,,,0.00,WUHU21636XXSP,2013-01-24 10:49:00,
2013-01-24 03:51:00,25.7,9.5,30.15,NE,45,1.5,3.1,50,0.00,,,0.00,WUHU21636XXSP,2013-01-24 10:51:00,
2013-01-24 03:52:00,25.5,9.7,30.14,WSW,247,0.0,3.1,51,0.00,,,0.00,WUHU21636XXSP,2013-01-24 10:52:00,
2013-01-24 03:53:00,25.5,9.7,30.14,WSW,247,0.0,3.1,51,0.00,,,0.00,WUHU21636XXSP,2013-01-24 10:53:00,
2013-01-24 03:55:00,25.3,9.7,30.14,NW,315,0.0,3.1,51,0.00,,,0.00,WUHU21636XXSP,2013-01-24 10:55:00,
2013-01-24 03:56:00,25.3,9.7,30.14,NW,315,0.0,3.1,51,0.00,,,0.00,WUHU21636XXSP,2013-01-24 10:56:00,
2013-01-24 03:58:00,25.3,9.7,30.14,NW,315,0.0,3.1,51,0.00,,,0.00,WUHU21636XXSP,2013-01-24 10:58:00,
2013-01-24 04:00:00,25.2,9.5,30.14,NW,315,0.0,3.1,51,0.00,,,0.00,WUHU21636XXSP,2013-01-24 11:00:00,
2013-01-24 04:01:00,25.2,9.5,30.15,NW,315,0.0,0.0,50,0.00,,,0.00,WUHU21636XXSP,2013-01-24 11:01:00,
2013-01-24 04:03:00,25.2,9.5,30.15,NW,315,0.0,0.0,50,0.00,,,0.00,WUHU21636XXSP,2013-01-24 11:03:00,
2013-01-24 04:05:00,25.0,9.3,30.15,NW,315,0.0,0.0,51,0.00,,,0.00,WUHU21636XXSP,2013-01-24 11:05:00,
2013-01-24 04:06:00,25.0,9.3,30.15,NW,315,0.0,0.0,50,0.00,,,0.00,WUHU21636XXSP,2013-01-24 11:06:00,
2013-01-24 04:08:00,25.0,9.3,30.15,NW,315,3.1,3.1,50,0.00,,,0.00,WUHU21636XXSP,2013-01-24 11:08:00,
2013-01-24 04:10:00,25.0,9.3,30.14,NW,315,3.3,3.3,51,0.00,,,0.00,WUHU21636XXSP,2013-01-24 11:10:00,
2013-01-24 04:11:00,25.0,9.3,30.14,NW,315,3.3,3.3,51,0.00,,,0.00,WUHU21636XXSP,2013-01-24 11:11:00,
2013-01-24 04:13:00,25.0,9.3,30.14,NW,315,1.2,3.3,51,0.00,,,0.00,WUHU21636XXSP,2013-01-24 11:13:00,
2013-01-24 04:15:00,24.8,9.1,30.14,NW,315,0.4,3.3,51,0.00,,,0.00,WUHU21636XXSP,2013-01-24 11:15:00,
2013-01-24 04:16:00,24.6,8.6,30.14,NW,315,3.3,3.3,50,0.00,,,0.00,WUHU21636XXSP,2013-01-24 11:16:00,
2013-01-24 04:18:00,24.6,8.6,30.14,NW,315,3.1,3.3,50,0.00,,,0.00,WUHU21636XXSP,2013-01-24 11:18:00,
2013-01-24 04:20:00,24.4,8.4,30.14,NW,315,1.7,3.3,50,0.00,,,0.00,WUHU21636XXSP,2013-01-24 11:20:00,
2013-01-24 04:21:00,24.4,8.4,30.13,NW,315,1.7,3.3,50,0.00,,,0.00,WUHU21636XXSP,2013-01-24 11:21:00,
2013-01-24 04:23:00,24.3,8.2,30.13,NNW,337,1.6,3.3,50,0.00,,,0.00,WUHU21636XXSP,2013-01-24 11:23:00,
2013-01-24 04:24:00,24.3,8.2,30.13,NNW,343,1.6,3.3,50,0.00,,,0.00,WUHU21636XXSP,2013-01-24 11:24:00,
2013-01-24 04:25:00,24.1,8.1,30.13,NNE,22,3.8,3.8,50,0.00,,,0.00,WUHU21636XXSP,2013-01-24 11:25:00,
2013-01-24 04:26:00,24.1,8.1,30.13,NNE,22,3.8,3.8,50,0.00,,,0.00,WUHU21636XXSP,2013-01-24 11:26:00,
2013-01-24 04:28:00,23.9,7.9,30.13,NNE,22,0.5,3.8,50,0.00,,,0.00,WUHU21636XXSP,2013-01-24 11:28:00,
2013-01-24 04:29:00,23.9,7.9,30.13,NNE,22,0.0,3.8,50,0.00,,,0.00,WUHU21636XXSP,2013-01-24 11:29:00,
2013-01-24 04:30:00,23.9,7.9,30.13,NW,315,4.9,4.9,50,0.00,,,0.00,WUHU21636XXSP,2013-01-24 11:30:00,
2013-01-24 04:31:00,23.9,7.9,30.13,NW,315,4.5,4.9,50,0.00,,,0.00,WUHU21636XXSP,2013-01-24 11:31:00,
2013-01-24 04:34:00,23.7,7.7,30.14,NW,315,2.7,4.9,50,0.00,,,0.00,WUHU21636XXSP,2013-01-24 11:34:00,
2013-01-24 04:36:00,23.7,7.7,30.14,NW,315,3.5,4.9,50,0.00,,,0.00,WUHU21636XXSP,2013-01-24 11:36:00,
2013-01-24 04:37:00,23.7,7.7,30.14,NW,315,3.5,4.9,50,0.00,,,0.00,WUHU21636XXSP,2013-01-24 11:37:00,
2013-01-24 04:39:00,23.7,7.7,30.14,NW,315,2.2,4.9,50,0.00,,,0.00,WUHU21636XXSP,2013-01-24 11:39:00,
2013-01-24 04:41:00,23.5,7.5,30.13,NW,315,3.1,4.9,50,0.00,,,0.00,WUHU21636XXSP,2013-01-24 11:41:00,
2013-01-24 04:42:00,23.5,7.5,30.13,NW,315,2.6,3.5,50,0.00,,,0.00,WUHU21636XXSP,2013-01-24 11:42:00,
2013-01-24 04:44:00,23.5,7.5,30.13,NW,315,0.0,3.5,50,0.00,,,0.00,WUHU21636XXSP,2013-01-24 11:44:00,
2013-01-24 04:46:00,23.5,7.5,30.13,NW,315,0.0,3.5,50,0.00,,,0.00,WUHU21636XXSP,2013-01-24 11:46:00,
2013-01-24 04:47:00,23.5,7.5,30.13,NW,315,2.2,3.5,50,0.00,,,0.00,WUHU21636XXSP,2013-01-24 11:47:00,
2013-01-24 04:49:00,23.4,7.3,30.13,NW,315,3.1,3.1,50,0.00,,,0.00,WUHU21636XXSP,2013-01-24 11:49:00,
2013-01-24 04:51:00,23.4,7.3,30.13,NW,315,2.3,3.1,50,0.00,,,0.00,WUHU21636XXSP,2013-01-24 11:51:00,
2013-01-24 04:52:00,23.4,7.3,30.13,NW,315,0.2,3.1,50,0.00,,,0.00,WUHU21636XXSP,2013-01-24 11:52:00,
2013-01-24 04:54:00,23.2,7.7,30.13,NW,315,0.0,3.1,51,0.00,,,0.00,WUHU21636XXSP,2013-01-24 11:54:00,
2013-01-24 04:55:00,23.2,7.7,30.13,NW,315,0.0,3.1,51,0.00,,,0.00,WUHU21636XXSP,2013-01-24 11:55:00,
2013-01-24 04:56:00,23.2,7.7,30.13,NW,315,0.0,3.1,51,0.00,,,0.00,WUHU21636XXSP,2013-01-24 11:56:00,
2013-01-24 04:57:00,23.2,7.7,30.13,NW,315,0.0,3.1,51,0.00,,,0.00,WUHU21636XXSP,2013-01-24 11:57:00,
2013-01-24 04:59:00,23.2,7.7,30.13,NW,315,0.0,3.1,51,0.00,,,0.00,WUHU21636XXSP,2013-01-24 11:59:00,
2013-01-24 05:00:00,23.2,7.7,30.13,NW,315,0.0,3.1,51,0.00,,,0.00,WUHU21636XXSP,2013-01-24 12:00:00,
2013-01-24 05:01:00,23.2,7.7,30.13,NW,315,0.0,0.0,51,0.00,,,0.00,WUHU21636XXSP,2013-01-24 12:01:00,
2013-01-24 05:02:00,23.0,7.5,30.13,NW,315,0.0,0.0,51,0.00,,,0.00,WUHU21636XXSP,2013-01-24 12:02:00,
2013-01-24 05:04:00,22.8,7.7,30.13,NW,315,0.0,0.0,52,0.00,,,0.00,WUHU21636XXSP,2013-01-24 12:04:00,
2013-01-24 05:05:00,22.8,7.7,30.13,NW,315,0.0,0.0,52,0.00,,,0.00,WUHU21636XXSP,2013-01-24 12:05:00,
2013-01-24 05:06:00,22.8,7.7,30.13,NW,315,0.0,0.0,53,0.00,,,0.00,WUHU21636XXSP,2013-01-24 12:06:00,
2013-01-24 05:07:00,22.8,7.7,30.13,NW,315,0.0,0.0,53,0.00,,,0.00,WUHU21636XXSP,2013-01-24 12:07:00,
2013-01-24 05:09:00,22.8,7.7,30.12,NW,315,0.0,0.0,54,0.00,,,0.00,WUHU21636XXSP,2013-01-24 12:09:00,
2013-01-24 05:10:00,22.8,7.7,30.12,NW,315,0.0,0.0,54,0.00,,,0.00,WUHU21636XXSP,2013-01-24 12:10:00,
2013-01-24 05:11:00,22.8,7.7,30.13,NW,315,0.0,0.0,54,0.00,,,0.00,WUHU21636XXSP,2013-01-24 12:11:00,
2013-01-24 05:12:00,22.8,7.7,30.13,NW,315,0.0,0.0,53,0.00,,,0.00,WUHU21636XXSP,2013-01-24 12:12:00,
2013-01-24 05:14:00,22.8,7.7,30.13,NW,315,0.0,0.0,54,0.00,,,0.00,WUHU21636XXSP,2013-01-24 12:14:00,
2013-01-24 05:15:00,22.8,7.7,30.13,NW,315,0.0,0.0,54,0.00,,,0.00,WUHU21636XXSP,2013-01-24 12:15:00,
2013-01-24 05:16:00,22.6,8.2,30.13,NW,315,0.0,0.0,54,0.00,,,0.00,WUHU21636XXSP,2013-01-24 12:16:00,
2013-01-24 05:17:00,22.6,8.2,30.13,NW,315,0.0,0.0,54,0.00,,,0.00,WUHU21636XXSP,2013-01-24 12:17:00,
2013-01-24 05:19:00,22.8,9.0,30.13,NW,315,0.0,0.0,55,0.00,,,0.00,WUHU21636XXSP,2013-01-24 12:19:00,
2013-01-24 05:20:00,22.8,9.0,30.13,NW,315,0.0,0.0,55,0.00,,,0.00,WUHU21636XXSP,2013-01-24 12:20:00,
2013-01-24 05:21:00,22.8,9.0,30.13,NW,315,0.0,0.0,54,0.00,,,0.00,WUHU21636XXSP,2013-01-24 12:21:00,
2013-01-24 05:23:00,22.8,9.0,30.13,NW,315,0.0,0.0,54,0.00,,,0.00,WUHU21636XXSP,2013-01-24 12:23:00,
2013-01-24 05:25:00,22.8,9.0,30.13,NW,315,0.0,0.0,54,0.00,,,0.00,WUHU21636XXSP,2013-01-24 12:25:00,
2013-01-24 05:27:00,22.8,9.0,30.13,NW,315,0.6,0.6,54,0.00,,,0.00,WUHU21636XXSP,2013-01-24 12:27:00,
2013-01-24 05:28:00,22.6,8.2,30.13,NW,315,0.3,0.6,54,0.00,,,0.00,WUHU21636XXSP,2013-01-24 12:28:00,
2013-01-24 05:30:00,22.6,8.2,30.13,NW,315,0.0,0.6,54,0.00,,,0.00,WUHU21636XXSP,2013-01-24 12:30:00,
2013-01-24 05:32:00,22.6,8.2,30.13,NE,45,3.3,3.3,54,0.00,,,0.00,WUHU21636XXSP,2013-01-24 12:32:00,
2013-01-24 05:33:00,22.6,8.2,30.13,NE,45,3.3,3.3,54,0.00,,,0.00,WUHU21636XXSP,2013-01-24 12:33:00,
2013-01-24 05:35:00,22.6,8.2,30.13,NE,45,0.7,3.3,54,0.00,,,0.00,WUHU21636XXSP,2013-01-24 12:35:00,
2013-01-24 05:37:00,22.6,8.2,30.13,NE,45,3.3,3.3,54,0.00,,,0.00,WUHU21636XXSP,2013-01-24 12:37:00,
2013-01-24 05:38:00,22.8,8.4,30.13,NE,45,2.6,3.3,54,0.00,,,0.00,WUHU21636XXSP,2013-01-24 12:38:00,
2013-01-24 05:40:00,22.8,8.4,30.13,NE,45,0.0,3.3,54,0.00,,,0.00,WUHU21636XXSP,2013-01-24 12:40:00,
2013-01-24 05:41:00,22.8,8.4,30.13,NE,45,0.0,3.3,54,0.00,,,0.00,WUHU21636XXSP,2013-01-24 12:41:00,
2013-01-24 05:42:00,22.6,7.9,30.13,NE,45,0.0,3.3,53,0.00,,,0.00,WUHU21636XXSP,2013-01-24 12:42:00,
2013-01-24 05:43:00,22.6,7.9,30.13,NE,45,0.0,3.3,53,0.00,,,0.00,WUHU21636XXSP,2013-01-24 12:43:00,
2013-01-24 05:45:00,22.6,7.9,30.13,NE,45,0.0,3.3,54,0.00,,,0.00,WUHU21636XXSP,2013-01-24 12:45:00,
2013-01-24 05:46:00,22.6,7.9,30.13,NE,45,0.0,3.3,54,0.00,,,0.00,WUHU21636XXSP,2013-01-24 12:46:00,
2013-01-24 05:47:00,22.8,8.1,30.12,NE,45,0.0,3.3,53,0.00,,,0.00,WUHU21636XXSP,2013-01-24 12:47:00,
2013-01-24 05:48:00,22.8,8.1,30.12,NE,45,0.0,0.0,53,0.00,,,0.00,WUHU21636XXSP,2013-01-24 12:48:00,
2013-01-24 05:50:00,22.6,7.9,30.12,NE,45,0.0,0.0,53,0.00,,,0.00,WUHU21636XXSP,2013-01-24 12:50:00,
2013-01-24 05:51:00,22.8,8.1,30.12,NE,45,0.0,0.0,53,0.00,,,0.00,WUHU21636XXSP,2013-01-24 12:51:00,
2013-01-24 05:53:00,22.8,8.1,30.13,NE,45,0.0,0.0,53,0.00,,,0.00,WUHU21636XXSP,2013-01-24 12:53:00,
2013-01-24 05:56:00,22.6,7.9,30.13,NE,45,0.0,0.0,53,0.00,,,0.00,WUHU21636XXSP,2013-01-24 12:56:00,
2013-01-24 05:58:00,22.6,7.9,30.13,NE,45,0.0,0.0,52,0.00,,,0.00,WUHU21636XXSP,2013-01-24 12:58:00,
2013-01-24 06:01:00,22.6,7.9,30.13,NE,45,0.0,0.0,52,0.00,,,0.00,WUHU21636XXSP,2013-01-24 13:01:00,
2013-01-24 06:03:00,22.6,7.9,30.13,NE,45,0.0,0.0,52,0.00,,,0.00,WUHU21636XXSP,2013-01-24 13:03:00,
2013-01-24 06:06:00,22.6,7.9,30.13,NNE,22,3.5,3.5,52,0.00,,,0.00,WUHU21636XXSP,2013-01-24 13:06:00,
2013-01-24 06:07:00,22.6,7.9,30.13,NNE,22,3.5,3.5,52,0.00,,,0.00,WUHU21636XXSP,2013-01-24 13:07:00,
2013-01-24 06:08:00,22.6,7.9,30.13,NNE,22,3.4,3.5,52,0.00,,,0.00,WUHU21636XXSP,2013-01-24 13:08:00,
2013-01-24 06:11:00,22.6,7.9,30.13,NNE,22,0.0,3.5,52,0.00,,,0.00,WUHU21636XXSP,2013-01-24 13:11:00,
2013-01-24 06:12:00,22.6,7.9,30.13,NNE,22,0.0,3.5,52,0.00,,,0.00,WUHU21636XXSP,2013-01-24 13:12:00,
2013-01-24 06:13:00,22.6,7.9,30.13,NW,315,0.8,3.5,52,0.00,,,0.00,WUHU21636XXSP,2013-01-24 13:13:00,
2013-01-24 06:16:00,22.6,7.9,30.13,NW,315,2.9,3.5,52,0.00,,,0.00,WUHU21636XXSP,2013-01-24 13:16:00,
2013-01-24 06:17:00,22.3,7.2,30.13,NW,315,2.7,3.5,52,0.00,,,0.00,WUHU21636XXSP,2013-01-24 13:17:00,
2013-01-24 06:18:00,22.3,7.2,30.13,NW,315,0.3,2.9,52,0.00,,,0.00,WUHU21636XXSP,2013-01-24 13:18:00,
2013-01-24 06:21:00,22.6,7.5,30.12,NW,315,1.3,2.9,52,0.00,,,0.00,WUHU21636XXSP,2013-01-24 13:21:00,
2013-01-24 06:22:00,22.6,7.5,30.13,NW,315,1.2,2.9,52,0.00,,,0.00,WUHU21636XXSP,2013-01-24 13:22:00,
2013-01-24 06:23:00,22.6,7.5,30.13,NW,315,0.7,2.9,52,0.00,,,0.00,WUHU21636XXSP,2013-01-24 13:23:00,
2013-01-24 06:26:00,22.6,7.5,30.13,NW,315,1.5,2.9,51,0.00,,,0.00,WUHU21636XXSP,2013-01-24 13:26:00,
2013-01-24 06:27:00,22.6,7.5,30.13,NW,315,1.5,1.5,51,0.00,,,0.00,WUHU21636XXSP,2013-01-24 13:27:00,
2013-01-24 06:28:00,22.6,7.5,30.13,NW,315,1.5,1.5,51,0.00,,,0.00,WUHU21636XXSP,2013-01-24 13:28:00,
2013-01-24 06:29:00,22.6,7.5,30.13,NW,315,1.5,1.5,51,0.00,,,0.00,WUHU21636XXSP,2013-01-24 13:29:00,
2013-01-24 06:31:00,22.8,7.3,30.13,NW,315,0.2,1.5,51,0.00,,,0.00,WUHU21636XXSP,2013-01-24 13:31:00,
2013-01-24 06:32:00,22.8,7.3,30.13,NW,315,0.0,1.5,51,0.00,,,0.00,WUHU21636XXSP,2013-01-24 13:32:00,
2013-01-24 06:33:00,22.8,7.3,30.13,NW,315,0.0,1.5,51,0.00,,,0.00,WUHU21636XXSP,2013-01-24 13:33:00,
2013-01-24 06:34:00,22.8,7.3,30.13,NW,315,0.0,1.5,51,0.00,,,0.00,WUHU21636XXSP,2013-01-24 13:34:00,
2013-01-24 06:36:00,22.8,7.3,30.13,NW,315,0.0,1.5,51,0.00,,,0.00,WUHU21636XXSP,2013-01-24 13:36:00,
2013-01-24 06:37:00,22.8,7.3,30.13,NW,315,0.0,1.5,51,0.00,,,0.00,WUHU21636XXSP,2013-01-24 13:37:00,
2013-01-24 06:38:00,22.8,7.3,30.13,NW,315,0.0,1.5,52,0.00,,,0.00,WUHU21636XXSP,2013-01-24 13:38:00,
2013-01-24 06:39:00,22.8,7.3,30.13,NW,315,0.0,1.5,52,0.00,,,0.00,WUHU21636XXSP,2013-01-24 13:39:00,
2013-01-24 06:41:00,22.8,7.3,30.13,NW,315,0.0,0.0,52,0.00,,,0.00,WUHU21636XXSP,2013-01-24 13:41:00,
2013-01-24 06:43:00,22.8,7.3,30.13,NW,315,0.0,0.0,52,0.00,,,0.00,WUHU21636XXSP,2013-01-24 13:43:00,
2013-01-24 06:44:00,22.8,7.3,30.13,NW,315,0.0,0.0,52,0.00,,,0.00,WUHU21636XXSP,2013-01-24 13:44:00,
2013-01-24 06:47:00,22.8,7.3,30.13,NW,315,0.0,0.0,52,0.00,,,0.00,WUHU21636XXSP,2013-01-24 13:47:00,
2013-01-24 06:48:00,22.8,7.3,30.13,East,90,3.1,3.1,52,0.00,,,0.00,WUHU21636XXSP,2013-01-24 13:48:00,
2013-01-24 06:49:00,22.8,7.3,30.13,East,90,3.1,3.1,52,0.00,,,0.00,WUHU21636XXSP,2013-01-24 13:49:00,
2013-01-24 06:50:00,23.0,7.9,30.13,East,90,1.7,3.1,52,0.00,,,0.00,WUHU21636XXSP,2013-01-24 13:50:00,
2013-01-24 06:52:00,23.0,7.9,30.13,East,90,0.0,3.1,52,0.00,,,0.00,WUHU21636XXSP,2013-01-24 13:52:00,
2013-01-24 06:53:00,23.0,7.9,30.13,East,90,0.0,3.1,52,0.00,,,0.00,WUHU21636XXSP,2013-01-24 13:53:00,
2013-01-24 06:54:00,23.2,8.1,30.13,North,0,2.2,3.1,52,0.00,,,0.00,WUHU21636XXSP,2013-01-24 13:54:00,
2013-01-24 06:55:00,23.2,8.1,30.13,North,0,2.2,3.1,52,0.00,,,0.00,WUHU21636XXSP,2013-01-24 13:55:00,
2013-01-24 06:57:00,23.2,8.1,30.13,North,351,3.4,6.2,52,0.00,,,0.00,WUHU21636XXSP,2013-01-24 13:57:00,
2013-01-24 06:58:00,23.2,8.1,30.12,North,0,3.0,6.2,52,0.00,,,0.00,WUHU21636XXSP,2013-01-24 13:58:00,
2013-01-24 06:59:00,23.2,8.1,30.13,North,0,2.7,6.2,52,0.00,,,0.00,WUHU21636XXSP,2013-01-24 13:59:00,
2013-01-24 07:00:00,23.2,8.1,30.13,North,0,2.4,6.2,52,0.00,,,0.00,WUHU21636XXSP,2013-01-24 14:00:00,
2013-01-24 07:02:00,23.2,8.1,30.12,NNE,15,1.3,6.2,51,0.00,,,0.00,WUHU21636XXSP,2013-01-24 14:02:00,
2013-01-24 07:03:00,23.2,8.1,30.12,North,0,1.3,6.2,51,0.00,,,0.00,WUHU21636XXSP,2013-01-24 14:03:00,
2013-01-24 07:04:00,23.2,8.1,30.12,North,0,1.3,6.2,51,0.00,,,0.00,WUHU21636XXSP,2013-01-24 14:04:00,
2013-01-24 07:05:00,23.2,7.7,30.12,NNE,22,4.0,6.2,51,0.00,,,0.00,WUHU21636XXSP,2013-01-24 14:05:00,
2013-01-24 07:07:00,24.1,8.1,30.12,North,0,5.8,6.9,50,0.00,,,0.00,WUHU21636XXSP,2013-01-24 14:07:00,
2013-01-24 07:08:00,24.6,8.1,30.12,NNE,14,5.2,7.8,49,0.00,,,0.00,WUHU21636XXSP,2013-01-24 14:08:00,
2013-01-24 07:09:00,25.3,8.2,30.13,NNE,22,6.2,10.2,48,0.00,,,0.00,WUHU21636XXSP,2013-01-24 14:09:00,
2013-01-24 07:10:00,25.9,8.2,30.12,North,0,8.2,14.9,47,0.00,,,0.00,WUHU21636XXSP,2013-01-24 14:10:00,
2013-01-24 07:12:00,26.8,8.6,30.12,NNE,22,9.8,15.4,46,0.00,,,0.00,WUHU21636XXSP,2013-01-24 14:12:00,
2013-01-24 07:13:00,27.7,9.0,30.12,North,0,10.5,15.6,45,0.00,,,0.00,WUHU21636XXSP,2013-01-24 14:13:00,
2013-01-24 07:14:00,28.2,9.0,30.12,North,0,11.1,15.6,44,0.00,,,0.00,WUHU21636XXSP,2013-01-24 14:14:00,
2013-01-24 07:15:00,28.6,8.8,30.12,NNW,337,11.1,17.2,43,0.00,,,0.00,WUHU21636XXSP,2013-01-24 14:15:00,
2013-01-24 07:17:00,29.5,9.1,30.12,NNE,22,11.8,17.2,42,0.00,,,0.00,WUHU21636XXSP,2013-01-24 14:17:00,
2013-01-24 07:18:00,30.0,9.0,30.12,NNE,29,10.3,17.2,41,0.00,,,0.00,WUHU21636XXSP,2013-01-24 14:18:00,
2013-01-24 07:20:00,30.6,9.0,30.12,NNE,29,10.1,17.2,40,0.00,,,0.00,WUHU21636XXSP,2013-01-24 14:20:00,
2013-01-24 07:22:00,31.3,9.0,30.13,NE,35,9.2,17.2,39,0.00,,,0.00,WUHU21636XXSP,2013-01-24 14:22:00,
2013-01-24 07:23:00,31.6,8.8,30.12,NE,37,6.8,17.2,38,0.00,,,0.00,WUHU21636XXSP,2013-01-24 14:23:00,
2013-01-24 07:25:00,31.6,8.8,30.12,NNE,22,5.5,17.2,38,0.00,,,0.00,WUHU21636XXSP,2013-01-24 14:25:00,
2013-01-24 07:26:00,31.8,9.0,30.13,NNE,22,7.6,15.2,38,0.00,,,0.00,WUHU21636XXSP,2013-01-24 14:26:00,
2013-01-24 07:27:00,32.0,8.4,30.13,NNE,22,9.8,15.2,37,0.00,,,0.00,WUHU21636XXSP,2013-01-24 14:27:00,
2013-01-24 07:28:00,32.5,9.0,30.13,NNE,20,9.0,16.5,37,0.00,,,0.00,WUHU21636XXSP,2013-01-24 14:28:00,
2013-01-24 07:30:00,32.5,9.0,30.12,North,5,5.4,16.5,37,0.00,,,0.00,WUHU21636XXSP,2013-01-24 14:30:00,
2013-01-24 07:31:00,32.5,9.0,30.13,NNW,337,4.2,16.5,37,0.00,,,0.00,WUHU21636XXSP,2013-01-24 14:31:00,
2013-01-24 07:32:00,33.1,8.8,30.12,North,358,5.6,16.5,36,0.00,,,0.00,WUHU21636XXSP,2013-01-24 14:32:00,
2013-01-24 07:33:00,33.4,8.4,30.12,North,352,6.6,16.5,35,0.00,,,0.00,WUHU21636XXSP,2013-01-24 14:33:00,
2013-01-24 07:35:00,33.6,8.6,30.12,NNE,22,7.8,16.5,35,0.00,,,0.00,WUHU21636XXSP,2013-01-24 14:35:00,
2013-01-24 07:36:00,34.0,9.0,30.12,NNE,22,8.7,16.5,35,0.00,,,0.00,WUHU21636XXSP,2013-01-24 14:36:00,
2013-01-24 07:37:00,34.0,8.2,30.12,NNE,14,8.7,16.7,34,0.00,,,0.00,WUHU21636XXSP,2013-01-24 14:37:00,
2013-01-24 07:39:00,34.3,8.6,30.12,NNW,337,8.9,16.7,34,0.00,,,0.00,WUHU21636XXSP,2013-01-24 14:39:00,
2013-01-24 07:40:00,34.5,8.8,30.12,North,0,8.7,16.7,34,0.00,,,0.00,WUHU21636XXSP,2013-01-24 14:40:00,
2013-01-24 07:41:00,34.9,8.4,30.12,North,359,7.3,16.7,33,0.00,,,0.00,WUHU21636XXSP,2013-01-24 14:41:00,
2013-01-24 07:42:00,35.1,8.6,30.12,NNE,22,8.9,17.2,33,0.00,,,0.00,WUHU21636XXSP,2013-01-24 14:42:00,
2013-01-24 07:44:00,35.2,8.8,30.12,North,352,7.4,17.2,33,0.00,,,0.00,WUHU21636XXSP,2013-01-24 14:44:00,
2013-01-24 07:45:00,35.2,8.8,30.12,NE,45,6.0,17.2,33,0.00,,,0.00,WUHU21636XXSP,2013-01-24 14:45:00,
2013-01-24 07:46:00,35.2,8.8,30.12,NW,315,8.0,17.2,33,0.00,,,0.00,WUHU21636XXSP,2013-01-24 14:46:00,
2013-01-24 07:47:00,35.4,8.8,30.12,NNE,22,7.8,17.2,33,0.00,,,0.00,WUHU21636XXSP,2013-01-24 14:47:00,
2013-01-24 07:49:00,35.6,9.0,30.12,NNE,22,9.1,18.1,33,0.00,,,0.00,WUHU21636XXSP,2013-01-24 14:49:00,
2013-01-24 07:50:00,35.8,9.1,30.12,NNE,19,8.1,18.1,33,0.00,,,0.00,WUHU21636XXSP,2013-01-24 14:50:00,
2013-01-24 07:51:00,35.8,9.1,30.12,NNE,25,7.5,18.1,33,0.00,,,0.00,WUHU21636XXSP,2013-01-24 14:51:00,
2013-01-24 07:53:00,35.8,8.6,30.12,NNE,26,7.4,18.1,32,0.00,,,0.00,WUHU21636XXSP,2013-01-24 14:53:00,
2013-01-24 07:54:00,36.1,8.8,30.12,NNE,22,6.8,18.1,32,0.00,,,0.00,WUHU21636XXSP,2013-01-24 14:54:00,
2013-01-24 07:55:00,36.1,9.5,30.12,NNE,22,6.9,18.1,33,0.00,,,0.00,WUHU21636XXSP,2013-01-24 14:55:00,
2013-01-24 07:56:00,36.1,8.8,30.12,NNE,15,6.1,18.1,32,0.00,,,0.00,WUHU21636XXSP,2013-01-24 14:56:00,
2013-01-24 07:58:00,36.3,9.7,30.12,NNE,12,5.4,18.1,33,0.00,,,0.00,WUHU21636XXSP,2013-01-24 14:58:00,
2013-01-24 08:00:00,36.7,9.3,30.12,NNW,337,6.0,13.4,32,0.00,,,0.00,WUHU21636XXSP,2013-01-24 15:00:00,
2013-01-24 08:01:00,37.0,9.7,30.12,NNW,337,6.7,13.4,32,0.00,,,0.00,WUHU21636XXSP,2013-01-24 15:01:00,
2013-01-24 08:03:00,37.2,9.9,30.12,North,5,5.5,13.4,32,0.00,,,0.00,WUHU21636XXSP,2013-01-24 15:03:00,
2013-01-24 08:05:00,37.9,11.1,30.12,North,0,9.3,14.5,33,0.00,,,0.00,WUHU21636XXSP,2013-01-24 15:05:00,
2013-01-24 08:06:00,38.3,10.2,30.12,North,6,7.1,14.5,31,0.00,,,0.00,WUHU21636XXSP,2013-01-24 15:06:00,
2013-01-24 08:07:00,38.3,10.2,30.12,North,5,7.2,14.5,31,0.00,,,0.00,WUHU21636XXSP,2013-01-24 15:07:00,
2013-01-24 08:08:00,38.8,11.3,30.12,North,0,7.6,14.5,32,0.00,,,0.00,WUHU21636XXSP,2013-01-24 15:08:00,
2013-01-24 08:10:00,39.2,11.7,30.12,NNW,335,4.1,14.5,32,0.00,,,0.00,WUHU21636XXSP,2013-01-24 15:10:00,
2013-01-24 08:11:00,39.7,11.5,30.11,NNE,22,4.2,14.5,31,0.00,,,0.00,WUHU21636XXSP,2013-01-24 15:11:00,
2013-01-24 08:12:00,39.7,11.5,30.11,NNE,22,4.2,14.5,31,0.00,,,0.00,WUHU21636XXSP,2013-01-24 15:12:00,
2013-01-24 08:13:00,40.1,11.8,30.11,NNE,22,4.2,14.5,31,0.00,,,0.00,WUHU21636XXSP,2013-01-24 15:13:00,
2013-01-24 08:15:00,40.1,11.8,30.11,NNE,22,3.8,11.1,31,0.00,,,0.00,WUHU21636XXSP,2013-01-24 15:15:00,
2013-01-24 08:16:00,40.6,10.8,30.11,North,10,4.2,11.1,29,0.00,,,0.00,WUHU21636XXSP,2013-01-24 15:16:00,
2013-01-24 08:17:00,40.6,10.8,30.11,North,7,3.8,9.8,29,0.00,,,0.00,WUHU21636XXSP,2013-01-24 15:17:00,
2013-01-24 08:19:00,40.6,10.8,30.11,North,0,3.8,7.1,29,0.00,,,0.00,WUHU21636XXSP,2013-01-24 15:19:00,
2013-01-24 08:20:00,40.6,10.8,30.12,North,0,3.8,7.1,29,0.00,,,0.00,WUHU21636XXSP,2013-01-24 15:20:00,
2013-01-24 08:22:00,40.6,10.8,30.11,North,0,4.4,7.1,29,0.00,,,0.00,WUHU21636XXSP,2013-01-24 15:22:00,
2013-01-24 08:24:00,40.8,10.0,30.11,NNE,16,2.9,7.1,28,0.00,,,0.00,WUHU21636XXSP,2013-01-24 15:24:00,
2013-01-24 08:26:00,40.8,10.0,30.11,North,5,2.2,6.7,28,0.00,,,0.00,WUHU21636XXSP,2013-01-24 15:26:00,
2013-01-24 08:27:00,40.8,10.0,30.11,NNW,337,1.7,4.4,28,0.00,,,0.00,WUHU21636XXSP,2013-01-24 15:27:00,
2013-01-24 08:29:00,41.2,9.3,30.11,North,10,6.0,11.8,27,0.00,,,0.00,WUHU21636XXSP,2013-01-24 15:29:00,
2013-01-24 08:31:00,41.2,9.3,30.11,North,0,3.5,11.8,27,0.00,,,0.00,WUHU21636XXSP,2013-01-24 15:31:00,
2013-01-24 08:32:00,41.4,10.4,30.11,North,0,2.0,11.8,28,0.00,,,0.00,WUHU21636XXSP,2013-01-24 15:32:00,
2013-01-24 08:34:00,41.2,9.3,30.12,WSW,247,2.4,11.8,27,0.00,,,0.00,WUHU21636XXSP,2013-01-24 15:34:00,
2013-01-24 08:36:00,41.2,9.3,30.12,WSW,247,2.4,11.8,27,0.00,,,0.00,WUHU21636XXSP,2013-01-24 15:36:00,
2013-01-24 08:37:00,41.2,9.3,30.11,WSW,243,1.6,11.8,28,0.00,,,0.00,WUHU21636XXSP,2013-01-24 15:37:00,
2013-01-24 08:39:00,40.8,10.0,30.12,SSW,206,3.6,8.0,28,0.00,,,0.00,WUHU21636XXSP,2013-01-24 15:39:00,
2013-01-24 08:41:00,40.8,10.0,30.12,SW,221,2.3,8.0,28,0.00,,,0.00,WUHU21636XXSP,2013-01-24 15:41:00,
2013-01-24 08:42:00,40.8,10.0,30.12,SW,225,6.9,10.2,28,0.00,,,0.00,WUHU21636XXSP,2013-01-24 15:42:00,
2013-01-24 08:43:00,40.8,10.0,30.12,West,270,5.1,10.2,28,0.00,,,0.00,WUHU21636XXSP,2013-01-24 15:43:00,
2013-01-24 08:45:00,40.8,10.0,30.12,SSW,196,4.8,10.2,28,0.00,,,0.00,WUHU21636XXSP,2013-01-24 15:45:00,
2013-01-24 08:46:00,40.8,10.0,30.12,SSW,202,4.5,10.2,28,0.00,,,0.00,WUHU21636XXSP,2013-01-24 15:46:00,
2013-01-24 08:47:00,40.8,10.0,30.12,SW,220,3.2,10.2,28,0.00,,,0.00,WUHU21636XXSP,2013-01-24 15:47:00,
2013-01-24 08:48:00,40.8,10.0,30.12,SW,225,2.9,10.2,28,0.00,,,0.00,WUHU21636XXSP,2013-01-24 15:48:00,
2013-01-24 08:50:00,40.8,10.0,30.12,South,180,0.6,10.2,29,0.00,,,0.00,WUHU21636XXSP,2013-01-24 15:50:00,
2013-01-24 08:51:00,40.8,10.0,30.12,South,180,0.3,10.2,29,0.00,,,0.00,WUHU21636XXSP,2013-01-24 15:51:00,
2013-01-24 08:52:00,41.2,11.1,30.12,South,180,0.0,7.8,29,0.00,,,0.00,WUHU21636XXSP,2013-01-24 15:52:00,
2013-01-24 08:53:00,41.2,11.1,30.12,South,180,0.0,7.8,29,0.00,,,0.00,WUHU21636XXSP,2013-01-24 15:53:00,
2013-01-24 08:55:00,41.2,11.1,30.12,South,180,0.0,4.6,29,0.00,,,0.00,WUHU21636XXSP,2013-01-24 15:55:00,
2013-01-24 08:56:00,41.2,11.1,30.12,South,180,0.0,2.9,29,0.00,,,0.00,WUHU21636XXSP,2013-01-24 15:56:00,
2013-01-24 08:58:00,41.2,11.1,30.12,SW,225,5.1,5.1,29,0.00,,,0.00,WUHU21636XXSP,2013-01-24 15:58:00,
2013-01-24 09:00:00,41.2,11.1,30.11,SSW,207,1.3,5.1,29,0.00,,,0.00,WUHU21636XXSP,2013-01-24 16:00:00,
2013-01-24 09:01:00,41.2,11.1,30.11,SSW,201,1.0,5.1,29,0.00,,,0.00,WUHU21636XXSP,2013-01-24 16:01:00,
2013-01-24 09:03:00,41.4,11.3,30.12,South,180,0.4,5.1,29,0.00,,,0.00,WUHU21636XXSP,2013-01-24 16:03:00,
2013-01-24 09:05:00,41.5,12.4,30.12,WSW,247,0.0,5.1,30,0.00,,,0.00,WUHU21636XXSP,2013-01-24 16:05:00,
2013-01-24 09:06:00,41.5,12.4,30.12,WSW,247,0.0,5.1,30,0.00,,,0.00,WUHU21636XXSP,2013-01-24 16:06:00,
2013-01-24 09:08:00,41.7,12.6,30.11,WSW,247,0.0,5.1,30,0.00,,,0.00,WUHU21636XXSP,2013-01-24 16:08:00,
2013-01-24 09:11:00,41.9,12.7,30.11,WSW,247,0.0,0.4,30,0.00,,,0.00,WUHU21636XXSP,2013-01-24 16:11:00,
2013-01-24 09:12:00,42.1,13.5,30.11,WSW,247,0.0,0.4,31,0.00,,,0.00,WUHU21636XXSP,2013-01-24 16:12:00,
2013-01-24 09:13:00,42.1,13.5,30.11,WSW,247,0.0,0.0,31,0.00,,,0.00,WUHU21636XXSP,2013-01-24 16:13:00,
2013-01-24 09:14:00,42.3,13.6,30.11,WSW,247,0.0,0.0,31,0.00,,,0.00,WUHU21636XXSP,2013-01-24 16:14:00,
2013-01-24 09:16:00,42.6,13.8,30.11,WSW,247,0.0,0.0,31,0.00,,,0.00,WUHU21636XXSP,2013-01-24 16:16:00,
2013-01-24 09:17:00,42.6,13.8,30.12,WSW,247,0.0,0.0,31,0.00,,,0.00,WUHU21636XXSP,2013-01-24 16:17:00,
2013-01-24 09:18:00,43.2,13.6,30.11,WSW,247,0.0,0.0,30,0.00,,,0.00,WUHU21636XXSP,2013-01-24 16:18:00,
2013-01-24 09:19:00,43.2,13.6,30.11,WSW,247,0.0,0.0,30,0.00,,,0.00,WUHU21636XXSP,2013-01-24 16:19:00,
2013-01-24 09:21:00,43.5,14.0,30.11,WSW,247,0.0,0.0,30,0.00,,,0.00,WUHU21636XXSP,2013-01-24 16:21:00,
2013-01-24 09:22:00,43.5,14.0,30.11,WSW,247,0.0,0.0,30,0.00,,,0.00,WUHU21636XXSP,2013-01-24 16:22:00,
2013-01-24 09:23:00,44.1,14.5,30.12,WSW,247,0.0,0.0,30,0.00,,,0.00,WUHU21636XXSP,2013-01-24 16:23:00,
2013-01-24 09:24:00,44.1,14.5,30.12,WSW,247,0.0,0.0,30,0.00,,,0.00,WUHU21636XXSP,2013-01-24 16:24:00,
2013-01-24 09:26:00,44.4,14.9,30.11,WSW,247,0.0,0.0,30,0.00,,,0.00,WUHU21636XXSP,2013-01-24 16:26:00,
2013-01-24 09:27:00,45.0,12.6,30.11,NNW,337,9.6,10.0,27,0.00,,,0.00,WUHU21636XXSP,2013-01-24 16:27:00,
2013-01-24 09:29:00,45.3,12.0,30.11,NNW,333,9.3,11.4,26,0.00,,,0.00,WUHU21636XXSP,2013-01-24 16:29:00,
2013-01-24 09:30:00,45.5,12.2,30.11,NNW,327,8.6,11.4,26,0.00,,,0.00,WUHU21636XXSP,2013-01-24 16:30:00,
2013-01-24 09:31:00,45.7,11.5,30.11,NNW,330,6.1,11.4,25,0.00,,,0.00,WUHU21636XXSP,2013-01-24 16:31:00,
2013-01-24 09:32:00,45.7,11.5,30.11,NNW,337,5.2,11.4,25,0.00,,,0.00,WUHU21636XXSP,2013-01-24 16:32:00,
2013-01-24 09:34:00,46.0,11.7,30.11,NNW,337,2.8,11.4,25,0.00,,,0.00,WUHU21636XXSP,2013-01-24 16:34:00,
2013-01-24 09:35:00,46.6,11.3,30.11,North,0,5.1,11.4,24,0.00,,,0.00,WUHU21636XXSP,2013-01-24 16:35:00,
2013-01-24 09:36:00,46.9,11.5,30.10,NW,315,10.2,11.4,24,0.00,,,0.00,WUHU21636XXSP,2013-01-24 16:36:00,
2013-01-24 09:37:00,46.9,10.6,30.10,NNW,337,12.5,14.7,23,0.00,,,0.00,WUHU21636XXSP,2013-01-24 16:37:00,
2013-01-24 09:39:00,47.5,11.1,30.10,NNW,335,9.4,16.1,23,0.00,,,0.00,WUHU21636XXSP,2013-01-24 16:39:00,
2013-01-24 09:40:00,47.7,11.3,30.10,NNW,333,7.0,16.1,23,0.00,,,0.00,WUHU21636XXSP,2013-01-24 16:40:00,
2013-01-24 09:41:00,48.0,11.5,30.10,NW,315,10.7,16.1,23,0.00,,,0.00,WUHU21636XXSP,2013-01-24 16:41:00,
2013-01-24 09:42:00,48.0,10.6,30.10,NW,315,12.3,16.1,22,0.00,,,0.00,WUHU21636XXSP,2013-01-24 16:42:00,
2013-01-24 09:45:00,48.6,11.1,30.10,NNW,337,8.4,16.1,22,0.00,,,0.00,WUHU21636XXSP,2013-01-24 16:45:00,
2013-01-24 09:46:00,48.6,11.1,30.10,NNW,337,1.3,16.1,22,0.00,,,0.00,WUHU21636XXSP,2013-01-24 16:46:00,
2013-01-24 09:48:00,48.7,12.2,30.10,NW,315,2.4,15.6,23,0.00,,,0.00,WUHU21636XXSP,2013-01-24 16:48:00,
2013-01-24 09:50:00,48.9,12.4,30.10,NW,315,1.2,15.6,23,0.00,,,0.00,WUHU21636XXSP,2013-01-24 16:50:00,
2013-01-24 09:51:00,48.9,13.3,30.10,SE,135,4.6,15.6,24,0.00,,,0.00,WUHU21636XXSP,2013-01-24 16:51:00,
2013-01-24 09:53:00,48.9,13.3,30.10,SE,135,4.6,13.1,24,0.00,,,0.00,WUHU21636XXSP,2013-01-24 16:53:00,
2013-01-24 09:55:00,49.3,14.5,30.11,SSW,202,2.2,4.6,25,0.00,,,0.00,WUHU21636XXSP,2013-01-24 16:55:00,
2013-01-24 09:57:00,49.3,14.5,30.11,SSW,202,2.2,4.6,25,0.00,,,0.00,WUHU21636XXSP,2013-01-24 16:57:00,
2013-01-24 09:58:00,49.3,14.5,30.11,SSW,196,1.8,4.6,25,0.00,,,0.00,WUHU21636XXSP,2013-01-24 16:58:00,
2013-01-24 10:01:00,49.1,14.4,30.11,SSE,157,0.4,4.6,25,0.00,,,0.00,WUHU21636XXSP,2013-01-24 17:01:00,
2013-01-24 10:02:00,49.1,14.4,30.11,SSW,202,0.0,4.6,25,0.00,,,0.00,WUHU21636XXSP,2013-01-24 17:02:00,
2013-01-24 10:03:00,49.1,14.4,30.11,SSE,157,0.4,4.6,26,0.00,,,0.00,WUHU21636XXSP,2013-01-24 17:03:00,
2013-01-24 10:06:00,48.9,15.1,30.11,South,180,1.5,2.2,26,0.00,,,0.00,WUHU21636XXSP,2013-01-24 17:06:00,
2013-01-24 10:07:00,48.9,15.1,30.11,South,180,1.1,2.2,27,0.00,,,0.00,WUHU21636XXSP,2013-01-24 17:07:00,
2013-01-24 10:08:00,48.9,15.1,30.11,SSE,157,0.0,1.5,27,0.00,,,0.00,WUHU21636XXSP,2013-01-24 17:08:00,
2013-01-24 10:11:00,49.5,16.5,30.10,SSE,157,3.1,3.1,27,0.00,,,0.00,WUHU21636XXSP,2013-01-24 17:11:00,
2013-01-24 10:12:00,49.5,16.5,30.10,SSE,157,3.1,3.1,27,0.00,,,0.00,WUHU21636XXSP,2013-01-24 17:12:00,
2013-01-24 10:13:00,49.8,14.9,30.10,SSE,157,1.8,3.1,25,0.00,,,0.00,WUHU21636XXSP,2013-01-24 17:13:00,
2013-01-24 10:16:00,50.2,15.3,30.10,South,180,0.0,3.1,25,0.00,,,0.00,WUHU21636XXSP,2013-01-24 17:16:00,
2013-01-24 10:17:00,50.5,15.6,30.10,South,180,0.0,3.1,25,0.00,,,0.00,WUHU21636XXSP,2013-01-24 17:17:00,
2013-01-24 10:18:00,50.5,15.6,30.10,South,180,0.0,3.1,25,0.00,,,0.00,WUHU21636XXSP,2013-01-24 17:18:00,
2013-01-24 10:21:00,51.1,15.1,30.11,South,180,0.0,3.1,24,0.00,,,0.00,WUHU21636XXSP,2013-01-24 17:21:00,
2013-01-24 10:22:00,51.4,15.4,30.11,WSW,247,1.7,3.1,24,0.00,,,0.00,WUHU21636XXSP,2013-01-24 17:22:00,
2013-01-24 10:23:00,52.0,15.8,30.11,WSW,247,3.5,3.5,24,0.00,,,0.00,WUHU21636XXSP,2013-01-24 17:23:00,
2013-01-24 10:26:00,52.3,15.3,30.11,West,270,3.8,3.8,23,0.00,,,0.00,WUHU21636XXSP,2013-01-24 17:26:00,
2013-01-24 10:27:00,52.3,15.3,30.11,West,270,3.8,3.8,23,0.00,,,0.00,WUHU21636XXSP,2013-01-24 17:27:00,
2013-01-24 10:29:00,52.5,14.4,30.10,West,270,2.0,3.8,22,0.00,,,0.00,WUHU21636XXSP,2013-01-24 17:29:00,
2013-01-24 10:31:00,52.5,14.4,30.10,ENE,67,3.3,3.8,23,0.00,,,0.00,WUHU21636XXSP,2013-01-24 17:31:00,
2013-01-24 10:32:00,52.5,14.4,30.10,East,90,4.2,4.2,22,0.00,,,0.00,WUHU21636XXSP,2013-01-24 17:32:00,
2013-01-24 10:34:00,52.5,14.4,30.10,East,90,4.2,4.2,22,0.00,,,0.00,WUHU21636XXSP,2013-01-24 17:34:00,
2013-01-24 10:36:00,52.7,14.5,30.10,ESE,112,3.3,4.2,22,0.00,,,0.00,WUHU21636XXSP,2013-01-24 17:36:00,
2013-01-24 10:37:00,52.9,14.7,30.11,West,270,7.1,7.6,22,0.00,,,0.00,WUHU21636XXSP,2013-01-24 17:37:00,
2013-01-24 10:39:00,53.2,14.0,30.10,SSW,211,4.0,18.5,21,0.00,,,0.00,WUHU21636XXSP,2013-01-24 17:39:00,
2013-01-24 10:41:00,53.4,14.2,30.10,East,90,6.2,18.5,21,0.00,,,0.00,WUHU21636XXSP,2013-01-24 17:41:00,
2013-01-24 10:42:00,53.4,14.2,30.10,East,90,6.2,18.5,21,0.00,,,0.00,WUHU21636XXSP,2013-01-24 17:42:00,
2013-01-24 10:43:00,53.4,14.2,30.10,East,90,6.2,18.5,21,0.00,,,0.00,WUHU21636XXSP,2013-01-24 17:43:00,
2013-01-24 10:45:00,53.4,14.2,30.11,SSE,155,4.0,18.5,21,0.00,,,0.00,WUHU21636XXSP,2013-01-24 17:45:00,
2013-01-24 10:46:00,53.6,14.4,30.11,SW,225,4.4,18.5,21,0.00,,,0.00,WUHU21636XXSP,2013-01-24 17:46:00,
2013-01-24 10:47:00,53.6,14.4,30.11,SW,225,4.4,11.4,21,0.00,,,0.00,WUHU21636XXSP,2013-01-24 17:47:00,
2013-01-24 10:48:00,53.4,14.2,30.10,SW,221,4.3,10.7,21,0.00,,,0.00,WUHU21636XXSP,2013-01-24 17:48:00,
2013-01-24 10:50:00,53.4,14.2,30.10,SE,135,2.9,6.4,21,0.00,,,0.00,WUHU21636XXSP,2013-01-24 17:50:00,
2013-01-24 10:51:00,53.4,14.2,30.10,SE,135,1.5,6.2,21,0.00,,,0.00,WUHU21636XXSP,2013-01-24 17:51:00,
2013-01-24 10:52:00,53.4,14.2,30.10,SE,135,1.3,6.2,21,0.00,,,0.00,WUHU21636XXSP,2013-01-24 17:52:00,
2013-01-24 10:53:00,53.4,14.2,30.10,SW,225,2.9,6.2,21,0.00,,,0.00,WUHU21636XXSP,2013-01-24 17:53:00,
2013-01-24 10:55:00,53.4,14.2,30.10,SW,225,1.5,4.4,21,0.00,,,0.00,WUHU21636XXSP,2013-01-24 17:55:00,
2013-01-24 10:57:00,53.6,15.3,30.10,WSW,247,0.0,4.4,22,0.00,,,0.00,WUHU21636XXSP,2013-01-24 17:57:00,
2013-01-24 10:58:00,53.6,15.3,30.10,WSW,247,0.0,2.9,22,0.00,,,0.00,WUHU21636XXSP,2013-01-24 17:58:00,
2013-01-24 11:00:00,53.8,15.4,30.10,SSE,157,2.9,2.9,22,0.00,,,0.00,WUHU21636XXSP,2013-01-24 18:00:00,
2013-01-24 11:02:00,54.1,16.7,30.10,South,173,3.8,6.7,23,0.00,,,0.00,WUHU21636XXSP,2013-01-24 18:02:00,
2013-01-24 11:03:00,54.1,16.7,30.10,South,180,3.1,6.7,23,0.00,,,0.00,WUHU21636XXSP,2013-01-24 18:03:00,
2013-01-24 11:05:00,54.3,16.9,30.10,SE,135,3.1,6.7,23,0.00,,,0.00,WUHU21636XXSP,2013-01-24 18:05:00,
2013-01-24 11:07:00,54.5,17.1,30.10,SE,135,0.7,6.7,23,0.00,,,0.00,WUHU21636XXSP,2013-01-24 18:07:00,
2013-01-24 11:08:00,54.7,17.2,30.10,South,180,0.0,6.7,23,0.00,,,0.00,WUHU21636XXSP,2013-01-24 18:08:00,
2013-01-24 11:10:00,55.0,18.5,30.10,South,180,0.0,6.7,24,0.00,,,0.00,WUHU21636XXSP,2013-01-24 18:10:00,
2013-01-24 11:12:00,55.6,18.0,30.10,SSE,157,3.8,3.8,23,0.00,,,0.00,WUHU21636XXSP,2013-01-24 18:12:00,
2013-01-24 11:13:00,55.6,18.0,30.09,SSE,157,3.8,3.8,23,0.00,,,0.00,WUHU21636XXSP,2013-01-24 18:13:00,
2013-01-24 11:15:00,56.1,17.4,30.10,SSE,157,4.0,4.0,22,0.00,,,0.00,WUHU21636XXSP,2013-01-24 18:15:00,
2013-01-24 11:17:00,56.3,17.6,30.10,South,170,3.6,4.0,22,0.00,,,0.00,WUHU21636XXSP,2013-01-24 18:17:00,
2013-01-24 11:18:00,56.8,18.0,30.10,South,180,3.0,4.0,22,0.00,,,0.00,WUHU21636XXSP,2013-01-24 18:18:00,
2013-01-24 11:20:00,56.8,18.0,30.09,SW,225,0.0,4.0,22,0.00,,,0.00,WUHU21636XXSP,2013-01-24 18:20:00,
2013-01-24 11:22:00,57.2,18.3,30.09,WSW,247,2.4,4.0,22,0.00,,,0.00,WUHU21636XXSP,2013-01-24 18:22:00,
2013-01-24 11:23:00,57.2,18.3,30.09,WSW,247,2.4,4.0,22,0.00,,,0.00,WUHU21636XXSP,2013-01-24 18:23:00,
2013-01-24 11:25:00,58.1,18.1,30.09,WSW,247,0.0,4.0,21,0.00,,,0.00,WUHU21636XXSP,2013-01-24 18:25:00,
2013-01-24 11:28:00,58.8,18.7,30.09,WSW,247,0.0,3.3,21,0.00,,,0.00,WUHU21636XXSP,2013-01-24 18:28:00,
2013-01-24 11:29:00,58.8,18.7,30.09,WSW,247,0.0,2.4,21,0.00,,,0.00,WUHU21636XXSP,2013-01-24 18:29:00,
2013-01-24 11:31:00,59.5,18.3,30.09,WSW,247,0.0,2.4,20,0.00,,,0.00,WUHU21636XXSP,2013-01-24 18:31:00,
2013-01-24 11:33:00,60.1,18.9,30.08,SW,225,2.9,2.9,20,0.00,,,0.00,WUHU21636XXSP,2013-01-24 18:33:00,
2013-01-24 11:34:00,60.4,17.9,30.08,ESE,112,3.5,3.5,19,0.00,,,0.00,WUHU21636XXSP,2013-01-24 18:34:00,
2013-01-24 11:36:00,61.0,18.4,30.08,ESE,117,3.5,3.5,19,0.00,,,0.00,WUHU21636XXSP,2013-01-24 18:36:00,
2013-01-24 11:38:00,61.5,16.9,30.08,SE,134,3.2,3.5,18,0.00,,,0.00,WUHU21636XXSP,2013-01-24 18:38:00,
2013-01-24 11:39:00,61.5,16.9,30.08,ESE,119,2.6,3.5,18,0.00,,,0.00,WUHU21636XXSP,2013-01-24 18:39:00,
2013-01-24 11:41:00,61.9,17.2,30.08,SE,135,4.0,4.0,18,0.00,,,0.00,WUHU21636XXSP,2013-01-24 18:41:00,
2013-01-24 11:43:00,62.2,17.6,30.08,SE,135,3.5,4.0,18,0.00,,,0.00,WUHU21636XXSP,2013-01-24 18:43:00,
2013-01-24 11:44:00,62.2,17.6,30.08,SE,135,3.1,4.0,18,0.00,,,0.00,WUHU21636XXSP,2013-01-24 18:44:00,
2013-01-24 11:46:00,62.6,17.8,30.08,SSE,157,4.3,7.1,18,0.00,,,0.00,WUHU21636XXSP,2013-01-24 18:46:00,
2013-01-24 11:48:00,62.8,18.0,30.08,SE,142,3.1,7.1,18,0.00,,,0.00,WUHU21636XXSP,2013-01-24 18:48:00,
2013-01-24 11:49:00,63.0,18.1,30.08,SE,135,2.1,7.1,18,0.00,,,0.00,WUHU21636XXSP,2013-01-24 18:49:00,
2013-01-24 11:51:00,63.1,18.1,30.07,SSE,157,3.3,7.1,18,0.00,,,0.00,WUHU21636XXSP,2013-01-24 18:51:00,
2013-01-24 11:53:00,63.1,18.1,30.08,SSE,157,3.3,7.1,18,0.00,,,0.00,WUHU21636XXSP,2013-01-24 18:53:00,
2013-01-24 11:55:00,63.3,18.3,30.08,SSE,157,3.3,3.8,18,0.00,,,0.00,WUHU21636XXSP,2013-01-24 18:55:00,
2013-01-24 11:57:00,63.5,18.5,30.08,SE,135,3.8,3.8,18,0.00,,,0.00,WUHU21636XXSP,2013-01-24 18:57:00,
2013-01-24 11:58:00,63.5,18.5,30.07,SE,142,3.5,3.8,18,0.00,,,0.00,WUHU21636XXSP,2013-01-24 18:58:00,
2013-01-24 12:00:00,63.3,18.3,30.07,South,180,5.5,5.5,18,0.00,,,0.00,WUHU21636XXSP,2013-01-24 19:00:00,
2013-01-24 12:02:00,63.3,18.3,30.07,South,180,5.5,5.5,18,0.00,,,0.00,WUHU21636XXSP,2013-01-24 19:02:00,
2013-01-24 12:03:00,63.3,18.3,30.07,SSE,165,4.0,5.5,18,0.00,,,0.00,WUHU21636XXSP,2013-01-24 19:03:00,
2013-01-24 12:05:00,63.5,18.5,30.07,South,180,5.8,8.9,18,0.00,,,0.00,WUHU21636XXSP,2013-01-24 19:05:00,
2013-01-24 12:07:00,63.7,18.7,30.07,WSW,244,3.0,8.9,18,0.00,,,0.00,WUHU21636XXSP,2013-01-24 19:07:00,
2013-01-24 12:08:00,64.0,17.4,30.07,SW,225,2.9,8.9,17,0.00,,,0.00,WUHU21636XXSP,2013-01-24 19:08:00,
2013-01-24 12:09:00,64.0,17.4,30.07,SW,225,2.9,8.9,17,0.00,,,0.00,WUHU21636XXSP,2013-01-24 19:09:00,
2013-01-24 12:10:00,64.0,17.4,30.07,South,180,5.1,8.9,17,0.00,,,0.00,WUHU21636XXSP,2013-01-24 19:10:00,
2013-01-24 12:12:00,64.2,17.4,30.07,SSW,202,6.9,8.9,17,0.00,,,0.00,WUHU21636XXSP,2013-01-24 19:12:00,
2013-01-24 12:13:00,64.2,17.4,30.07,South,181,6.2,10.2,17,0.00,,,0.00,WUHU21636XXSP,2013-01-24 19:13:00,
2013-01-24 12:14:00,64.0,17.4,30.07,South,178,5.7,10.2,17,0.00,,,0.00,WUHU21636XXSP,2013-01-24 19:14:00,
2013-01-24 12:15:00,64.2,17.4,30.07,South,185,3.8,10.2,17,0.00,,,0.00,WUHU21636XXSP,2013-01-24 19:15:00,
2013-01-24 12:17:00,64.6,17.8,30.07,South,180,1.8,10.2,17,0.00,,,0.00,WUHU21636XXSP,2013-01-24 19:17:00,
2013-01-24 12:19:00,64.8,18.0,30.07,South,180,2.4,10.2,17,0.00,,,0.00,WUHU21636XXSP,2013-01-24 19:19:00,
2013-01-24 12:20:00,64.8,18.0,30.07,South,180,2.4,10.2,17,0.00,,,0.00,WUHU21636XXSP,2013-01-24 19:20:00,
2013-01-24 12:22:00,64.9,18.1,30.07,SSE,157,4.4,10.2,17,0.00,,,0.00,WUHU21636XXSP,2013-01-24 19:22:00,
2013-01-24 12:24:00,64.9,18.1,30.07,SE,135,4.9,10.2,17,0.00,,,0.00,WUHU21636XXSP,2013-01-24 19:24:00,
2013-01-24 12:25:00,64.9,18.1,30.06,SE,143,4.5,10.2,17,0.00,,,0.00,WUHU21636XXSP,2013-01-24 19:25:00,
2013-01-24 12:27:00,65.1,16.7,30.06,ESE,112,4.0,10.2,16,0.00,,,0.00,WUHU21636XXSP,2013-01-24 19:27:00,
2013-01-24 12:29:00,65.1,16.7,30.06,ESE,112,4.0,10.2,16,0.00,,,0.00,WUHU21636XXSP,2013-01-24 19:29:00,
2013-01-24 12:30:00,65.1,16.7,30.05,South,180,4.2,10.2,16,0.00,,,0.00,WUHU21636XXSP,2013-01-24 19:30:00,
2013-01-24 12:32:00,65.1,15.1,30.05,South,180,4.1,8.5,15,0.00,,,0.00,WUHU21636XXSP,2013-01-24 19:32:00,
2013-01-24 12:34:00,65.1,13.5,30.05,South,182,3.7,7.3,14,0.00,,,0.00,WUHU21636XXSP,2013-01-24 19:34:00,
2013-01-24 12:35:00,65.1,13.5,30.05,SSW,194,2.7,7.3,14,0.00,,,0.00,WUHU21636XXSP,2013-01-24 19:35:00,
2013-01-24 12:36:00,65.1,13.5,30.05,WSW,247,1.3,4.2,14,0.00,,,0.00,WUHU21636XXSP,2013-01-24 19:36:00,
2013-01-24 12:37:00,65.1,13.5,30.05,WSW,247,0.7,4.2,14,0.00,,,0.00,WUHU21636XXSP,2013-01-24 19:37:00,
2013-01-24 12:39:00,65.1,13.5,30.05,SE,135,5.3,5.3,14,0.00,,,0.00,WUHU21636XXSP,2013-01-24 19:39:00,
2013-01-24 12:40:00,65.1,13.5,30.05,SE,135,5.3,5.3,14,0.00,,,0.00,WUHU21636XXSP,2013-01-24 19:40:00,
2013-01-24 12:41:00,64.9,13.3,30.05,SE,140,5.3,6.7,14,0.00,,,0.00,WUHU21636XXSP,2013-01-24 19:41:00,
2013-01-24 12:43:00,64.9,13.3,30.05,SE,124,2.3,6.7,14,0.00,,,0.00,WUHU21636XXSP,2013-01-24 19:43:00,
2013-01-24 12:44:00,64.8,13.1,30.05,ESE,112,3.5,6.9,14,0.00,,,0.00,WUHU21636XXSP,2013-01-24 19:44:00,
2013-01-24 12:45:00,64.8,13.1,30.05,ESE,112,3.5,6.9,14,0.00,,,0.00,WUHU21636XXSP,2013-01-24 19:45:00,
2013-01-24 12:46:00,64.8,13.1,30.05,ESE,112,3.5,6.9,14,0.00,,,0.00,WUHU21636XXSP,2013-01-24 19:46:00,
2013-01-24 12:48:00,64.8,13.1,30.06,ESE,112,3.5,6.9,14,0.00,,,0.00,WUHU21636XXSP,2013-01-24 19:48:00,
2013-01-24 12:49:00,64.8,13.1,30.05,ESE,112,4.4,6.9,14,0.00,,,0.00,WUHU21636XXSP,2013-01-24 19:49:00,
2013-01-24 12:50:00,64.8,13.1,30.05,ESE,112,4.4,6.9,14,0.00,,,0.00,WUHU21636XXSP,2013-01-24 19:50:00,
2013-01-24 12:51:00,64.8,13.1,30.06,East,101,4.2,6.9,14,0.00,,,0.00,WUHU21636XXSP,2013-01-24 19:51:00,
2013-01-24 12:53:00,64.8,13.1,30.06,East,90,3.2,6.9,14,0.00,,,0.00,WUHU21636XXSP,2013-01-24 19:53:00,
2013-01-24 12:55:00,64.8,13.1,30.05,East,90,5.3,6.4,14,0.00,,,0.00,WUHU21636XXSP,2013-01-24 19:55:00,
2013-01-24 12:56:00,64.8,13.1,30.05,East,90,5.5,8.5,14,0.00,,,0.00,WUHU21636XXSP,2013-01-24 19:56:00,
2013-01-24 12:58:00,64.6,13.1,30.05,SSE,157,8.5,12.7,14,0.00,,,0.00,WUHU21636XXSP,2013-01-24 19:58:00,
2013-01-24 13:00:00,64.6,13.1,30.05,SSE,154,6.1,12.7,14,0.00,,,0.00,WUHU21636XXSP,2013-01-24 20:00:00,
2013-01-24 13:01:00,64.6,13.1,30.05,SSE,165,3.9,12.7,14,0.00,,,0.00,WUHU21636XXSP,2013-01-24 20:01:00,
2013-01-24 13:03:00,64.6,13.1,30.05,SE,140,2.7,12.7,14,0.00,,,0.00,WUHU21636XXSP,2013-01-24 20:03:00,
2013-01-24 13:05:00,64.6,13.1,30.05,SSE,157,3.8,12.7,14,0.00,,,0.00,WUHU21636XXSP,2013-01-24 20:05:00,
2013-01-24 13:07:00,64.6,13.1,30.05,SSE,157,3.8,12.7,14,0.00,,,0.00,WUHU21636XXSP,2013-01-24 20:07:00,
2013-01-24 13:09:00,64.6,13.1,30.05,SSW,202,8.7,11.8,14,0.00,,,0.00,WUHU21636XXSP,2013-01-24 20:09:00,
2013-01-24 13:10:00,64.6,13.1,30.05,SSW,195,7.5,12.9,14,0.00,,,0.00,WUHU21636XXSP,2013-01-24 20:10:00,
2013-01-24 13:12:00,64.6,13.1,30.05,South,180,4.3,12.9,14,0.00,,,0.00,WUHU21636XXSP,2013-01-24 20:12:00,
2013-01-24 13:14:00,64.8,11.7,30.05,SW,219,4.5,12.9,13,0.00,,,0.00,WUHU21636XXSP,2013-01-24 20:14:00,
2013-01-24 13:16:00,64.9,11.7,30.05,SSW,205,3.5,12.9,13,0.00,,,0.00,WUHU21636XXSP,2013-01-24 20:16:00,
2013-01-24 13:17:00,65.1,11.8,30.05,SW,225,4.0,12.9,13,0.00,,,0.00,WUHU21636XXSP,2013-01-24 20:17:00,
2013-01-24 13:19:00,65.1,11.8,30.05,SW,225,4.0,12.9,13,0.00,,,0.00,WUHU21636XXSP,2013-01-24 20:19:00,
2013-01-24 13:21:00,65.5,12.2,30.04,South,180,7.1,12.0,13,0.00,,,0.00,WUHU21636XXSP,2013-01-24 20:21:00,
2013-01-24 13:22:00,65.5,12.2,30.04,South,178,7.5,12.0,13,0.00,,,0.00,WUHU21636XXSP,2013-01-24 20:22:00,
2013-01-24 13:24:00,65.5,12.2,30.04,South,188,4.7,12.0,13,0.00,,,0.00,WUHU21636XXSP,2013-01-24 20:24:00,
2013-01-24 13:26:00,65.5,12.2,30.05,SSW,204,5.2,12.0,13,0.00,,,0.00,WUHU21636XXSP,2013-01-24 20:26:00,
2013-01-24 13:27:00,65.5,12.2,30.05,SW,224,2.0,12.0,13,0.00,,,0.00,WUHU21636XXSP,2013-01-24 20:27:00,
2013-01-24 13:29:00,65.8,12.4,30.05,South,180,4.2,12.0,13,0.00,,,0.00,WUHU21636XXSP,2013-01-24 20:29:00,
2013-01-24 13:31:00,65.5,12.2,30.05,SSW,199,6.0,10.0,13,0.00,,,0.00,WUHU21636XXSP,2013-01-24 20:31:00,
2013-01-24 13:33:00,65.5,12.2,30.05,South,173,4.9,10.0,13,0.00,,,0.00,WUHU21636XXSP,2013-01-24 20:33:00,
2013-01-24 13:34:00,65.5,12.2,30.04,SE,135,6.2,10.0,13,0.00,,,0.00,WUHU21636XXSP,2013-01-24 20:34:00,
2013-01-24 13:36:00,65.3,12.0,30.04,SSW,198,4.1,10.9,13,0.00,,,0.00,WUHU21636XXSP,2013-01-24 20:36:00,
2013-01-24 13:37:00,65.3,12.0,30.04,SSW,200,4.0,10.9,13,0.00,,,0.00,WUHU21636XXSP,2013-01-24 20:37:00,
2013-01-24 13:38:00,65.3,12.0,30.04,SSW,202,2.2,10.9,13,0.00,,,0.00,WUHU21636XXSP,2013-01-24 20:38:00,
2013-01-24 13:39:00,65.3,12.0,30.04,East,90,1.1,10.9,13,0.00,,,0.00,WUHU21636XXSP,2013-01-24 20:39:00,
2013-01-24 13:42:00,65.3,12.0,30.04,ENE,67,1.1,10.9,13,0.00,,,0.00,WUHU21636XXSP,2013-01-24 20:42:00,
2013-01-24 13:43:00,65.3,12.0,30.04,ENE,67,1.1,10.9,13,0.00,,,0.00,WUHU21636XXSP,2013-01-24 20:43:00,
2013-01-24 13:45:00,65.3,12.0,30.04,SSW,199,4.0,7.1,13,0.00,,,0.00,WUHU21636XXSP,2013-01-24 20:45:00,
2013-01-24 13:47:00,65.3,12.0,30.04,SE,135,3.8,7.1,13,0.00,,,0.00,WUHU21636XXSP,2013-01-24 20:47:00,
2013-01-24 13:48:00,65.3,12.0,30.04,SE,135,3.8,7.1,13,0.00,,,0.00,WUHU21636XXSP,2013-01-24 20:48:00,
2013-01-24 13:50:00,65.1,11.8,30.04,SSE,167,5.3,10.2,13,0.00,,,0.00,WUHU21636XXSP,2013-01-24 20:50:00,
2013-01-24 13:52:00,65.1,11.8,30.04,SSE,157,4.6,10.2,13,0.00,,,0.00,WUHU21636XXSP,2013-01-24 20:52:00,
2013-01-24 13:53:00,65.1,11.8,30.04,SSE,157,4.6,10.2,13,0.00,,,0.00,WUHU21636XXSP,2013-01-24 20:53:00,
2013-01-24 13:55:00,65.1,11.8,30.04,ESE,118,6.2,10.2,13,0.00,,,0.00,WUHU21636XXSP,2013-01-24 20:55:00,
2013-01-24 13:57:00,64.9,11.7,30.04,SE,133,4.7,11.4,13,0.00,,,0.00,WUHU21636XXSP,2013-01-24 20:57:00,
2013-01-24 13:58:00,64.9,11.7,30.04,SE,141,3.0,11.4,13,0.00,,,0.00,WUHU21636XXSP,2013-01-24 20:58:00,
2013-01-24 14:00:00,64.8,11.7,30.04,SSE,157,4.6,11.4,13,0.00,,,0.00,WUHU21636XXSP,2013-01-24 21:00:00,
2013-01-24 14:02:00,64.6,11.5,30.04,SSE,168,5.9,11.4,13,0.00,,,0.00,WUHU21636XXSP,2013-01-24 21:02:00,
2013-01-24 14:03:00,64.6,11.5,30.04,SSE,148,5.0,11.4,13,0.00,,,0.00,WUHU21636XXSP,2013-01-24 21:03:00,
2013-01-24 14:05:00,64.6,11.5,30.05,SE,146,4.1,11.4,13,0.00,,,0.00,WUHU21636XXSP,2013-01-24 21:05:00,
2013-01-24 14:07:00,64.6,11.5,30.05,South,180,3.0,9.1,13,0.00,,,0.00,WUHU21636XXSP,2013-01-24 21:07:00,
2013-01-24 14:08:00,64.6,11.5,30.05,South,180,2.7,9.1,13,0.00,,,0.00,WUHU21636XXSP,2013-01-24 21:08:00,
2013-01-24 14:10:00,64.6,11.5,30.05,ESE,112,3.1,9.1,13,0.00,,,0.00,WUHU21636XXSP,2013-01-24 21:10:00,
2013-01-24 14:12:00,64.6,11.5,30.05,SE,129,2.7,6.2,13,0.00,,,0.00,WUHU21636XXSP,2013-01-24 21:12:00,
2013-01-24 14:13:00,64.6,11.5,30.04,SE,135,2.6,6.2,13,0.00,,,0.00,WUHU21636XXSP,2013-01-24 21:13:00,
2013-01-24 14:15:00,64.4,11.3,30.05,South,176,4.0,8.2,13,0.00,,,0.00,WUHU21636XXSP,2013-01-24 21:15:00,
2013-01-24 14:18:00,64.6,13.1,30.05,South,180,0.9,8.2,14,0.00,,,0.00,WUHU21636XXSP,2013-01-24 21:18:00,
2013-01-24 14:20:00,64.6,13.1,30.05,SSW,210,5.5,10.0,14,0.00,,,0.00,WUHU21636XXSP,2013-01-24 21:20:00,
2013-01-24 14:23:00,64.6,13.1,30.05,SSW,193,3.6,10.0,14,0.00,,,0.00,WUHU21636XXSP,2013-01-24 21:23:00,
2013-01-24 14:25:00,64.8,13.1,30.05,South,180,0.7,10.0,14,0.00,,,0.00,WUHU21636XXSP,2013-01-24 21:25:00,
2013-01-24 14:28:00,64.8,13.1,30.05,SE,135,3.1,10.0,14,0.00,,,0.00,WUHU21636XXSP,2013-01-24 21:28:00,
2013-01-24 14:30:00,64.8,13.1,30.05,SE,136,3.3,4.0,14,0.00,,,0.00,WUHU21636XXSP,2013-01-24 21:30:00,
2013-01-24 14:33:00,64.6,13.1,30.05,South,174,1.8,3.3,14,0.00,,,0.00,WUHU21636XXSP,2013-01-24 21:33:00,
2013-01-24 14:35:00,64.6,13.1,30.05,SE,135,0.7,3.3,14,0.00,,,0.00,WUHU21636XXSP,2013-01-24 21:35:00,
2013-01-24 14:38:00,64.4,16.0,30.05,ESE,112,0.0,3.3,16,0.00,,,0.00,WUHU21636XXSP,2013-01-24 21:38:00,
2013-01-24 14:41:00,64.6,16.2,30.05,ENE,67,2.6,2.6,16,0.00,,,0.00,WUHU21636XXSP,2013-01-24 21:41:00,
2013-01-24 14:43:00,64.8,16.3,30.05,East,90,1.3,2.6,16,0.00,,,0.00,WUHU21636XXSP,2013-01-24 21:43:00,
2013-01-24 14:44:00,64.8,16.3,30.05,South,180,5.3,6.4,16,0.00,,,0.00,WUHU21636XXSP,2013-01-24 21:44:00,
2013-01-24 14:46:00,64.8,18.0,30.05,SSW,202,10.7,19.0,17,0.00,,,0.00,WUHU21636XXSP,2013-01-24 21:46:00,
2013-01-24 14:48:00,64.9,19.6,30.05,SSW,193,7.2,19.0,18,0.00,,,0.00,WUHU21636XXSP,2013-01-24 21:48:00,
2013-01-24 14:49:00,64.9,19.6,30.05,South,174,5.7,19.0,18,0.00,,,0.00,WUHU21636XXSP,2013-01-24 21:49:00,
2013-01-24 14:51:00,64.9,19.6,30.05,South,180,4.4,19.0,18,0.00,,,0.00,WUHU21636XXSP,2013-01-24 21:51:00,
2013-01-24 14:53:00,64.9,18.1,30.05,SW,231,4.0,19.0,17,0.00,,,0.00,WUHU21636XXSP,2013-01-24 21:53:00,
2013-01-24 14:54:00,64.9,18.1,30.05,WSW,244,3.1,19.0,17,0.00,,,0.00,WUHU21636XXSP,2013-01-24 21:54:00,
2013-01-24 14:56:00,65.3,18.3,30.05,WSW,247,11.4,15.2,17,0.00,,,0.00,WUHU21636XXSP,2013-01-24 21:56:00,
2013-01-24 14:58:00,65.5,18.5,30.05,NNW,337,7.1,15.2,17,0.00,,,0.00,WUHU21636XXSP,2013-01-24 21:58:00,
2013-01-24 14:59:00,65.5,18.5,30.05,NNW,337,7.1,15.2,17,0.00,,,0.00,WUHU21636XXSP,2013-01-24 21:59:00,
2013-01-24 15:01:00,65.8,20.3,30.05,WNW,293,5.5,15.2,18,0.00,,,0.00,WUHU21636XXSP,2013-01-24 22:01:00,
2013-01-24 15:04:00,65.5,18.5,30.05,South,180,5.8,15.2,17,0.00,,,0.00,WUHU21636XXSP,2013-01-24 22:04:00,
2013-01-24 15:06:00,65.5,18.5,30.05,ESE,112,6.7,14.7,17,0.00,,,0.00,WUHU21636XXSP,2013-01-24 22:06:00,
2013-01-24 15:09:00,64.9,19.6,30.05,ESE,102,4.2,14.7,18,0.00,,,0.00,WUHU21636XXSP,2013-01-24 22:09:00,
2013-01-24 15:11:00,65.1,19.8,30.05,East,90,1.4,9.3,18,0.00,,,0.00,WUHU21636XXSP,2013-01-24 22:11:00,
2013-01-24 15:14:00,65.1,19.8,30.05,SW,217,5.2,11.8,18,0.00,,,0.00,WUHU21636XXSP,2013-01-24 22:14:00,
2013-01-24 15:15:00,64.9,19.6,30.05,NW,315,5.5,11.8,18,0.00,,,0.00,WUHU21636XXSP,2013-01-24 22:15:00,
2013-01-24 15:16:00,64.9,19.6,30.05,West,270,4.2,11.8,18,0.00,,,0.00,WUHU21636XXSP,2013-01-24 22:16:00,
2013-01-24 15:19:00,64.9,21.6,30.05,WSW,247,5.5,11.8,19,0.00,,,0.00,WUHU21636XXSP,2013-01-24 22:19:00,
2013-01-24 15:20:00,64.9,21.6,30.05,WSW,247,5.5,11.8,19,0.00,,,0.00,WUHU21636XXSP,2013-01-24 22:20:00,
2013-01-24 15:21:00,64.8,19.6,30.05,West,270,6.4,11.8,18,0.00,,,0.00,WUHU21636XXSP,2013-01-24 22:21:00,
2013-01-24 15:24:00,64.2,22.3,30.05,West,264,10.7,19.4,20,0.00,,,0.00,WUHU21636XXSP,2013-01-24 22:24:00,
2013-01-24 15:25:00,64.2,22.3,30.05,West,269,10.3,19.4,20,0.00,,,0.00,WUHU21636XXSP,2013-01-24 22:25:00,
2013-01-24 15:26:00,63.7,21.7,30.05,West,270,10.0,20.8,20,0.00,,,0.00,WUHU21636XXSP,2013-01-24 22:26:00,
2013-01-24 15:29:00,63.3,22.5,30.05,WSW,245,12.4,29.5,21,0.00,,,0.00,WUHU21636XXSP,2013-01-24 22:29:00,
2013-01-24 15:30:00,63.3,22.5,30.05,WSW,246,12.3,29.5,21,0.00,,,0.00,WUHU21636XXSP,2013-01-24 22:30:00,
2013-01-24 15:31:00,62.8,22.1,30.05,WSW,247,16.7,31.7,21,0.00,,,0.00,WUHU21636XXSP,2013-01-24 22:31:00,
2013-01-24 15:34:00,62.4,21.7,30.05,SW,225,15.4,31.7,21,0.00,,,0.00,WUHU21636XXSP,2013-01-24 22:34:00,
2013-01-24 15:35:00,62.4,21.7,30.05,WSW,251,12.8,31.7,21,0.00,,,0.00,WUHU21636XXSP,2013-01-24 22:35:00,
2013-01-24 15:37:00,62.4,21.7,30.05,West,263,12.4,31.7,21,0.00,,,0.00,WUHU21636XXSP,2013-01-24 22:37:00,
2013-01-24 15:39:00,62.4,23.7,30.05,West,265,12.1,31.7,23,0.00,,,0.00,WUHU21636XXSP,2013-01-24 22:39:00,
2013-01-24 15:40:00,62.4,23.7,30.05,West,266,11.5,31.7,23,0.00,,,0.00,WUHU21636XXSP,2013-01-24 22:40:00,
2013-01-24 15:42:00,62.4,23.7,30.06,West,270,12.7,26.3,23,0.00,,,0.00,WUHU21636XXSP,2013-01-24 22:42:00,
2013-01-24 15:44:00,62.4,23.7,30.06,West,279,12.3,26.3,23,0.00,,,0.00,WUHU21636XXSP,2013-01-24 22:44:00,
2013-01-24 15:45:00,62.4,23.7,30.06,West,279,11.8,26.3,23,0.00,,,0.00,WUHU21636XXSP,2013-01-24 22:45:00,
2013-01-24 15:47:00,62.4,23.7,30.06,West,270,10.4,26.3,23,0.00,,,0.00,WUHU21636XXSP,2013-01-24 22:47:00,
2013-01-24 15:50:00,62.4,23.7,30.06,West,270,11.1,26.3,23,0.00,,,0.00,WUHU21636XXSP,2013-01-24 22:50:00,
2013-01-24 15:52:00,62.2,23.5,30.07,West,270,6.4,22.5,23,0.00,,,0.00,WUHU21636XXSP,2013-01-24 22:52:00,
2013-01-24 15:55:00,61.9,24.3,30.07,NW,315,12.7,20.8,24,0.00,,,0.00,WUHU21636XXSP,2013-01-24 22:55:00,
2013-01-24 15:57:00,61.2,24.6,30.07,NW,315,12.3,21.0,25,0.00,,,0.00,WUHU21636XXSP,2013-01-24 22:57:00,
2013-01-24 16:00:00,60.8,25.2,30.07,NW,315,16.7,23.0,26,0.00,,,0.00,WUHU21636XXSP,2013-01-24 23:00:00,
2013-01-24 16:03:00,60.4,25.2,30.07,NNW,327,14.4,25.5,26,0.00,,,0.00,WUHU21636XXSP,2013-01-24 23:03:00,
2013-01-24 16:05:00,59.9,25.3,30.07,NW,310,16.0,25.5,27,0.00,,,0.00,WUHU21636XXSP,2013-01-24 23:05:00,
2013-01-24 16:08:00,59.7,25.3,30.07,NW,315,9.5,25.5,27,0.00,,,0.00,WUHU21636XXSP,2013-01-24 23:08:00,
2013-01-24 16:10:00,59.7,25.3,30.07,NW,306,7.5,25.5,27,0.00,,,0.00,WUHU21636XXSP,2013-01-24 23:10:00,
2013-01-24 16:13:00,59.5,26.1,30.07,NW,315,7.2,24.3,28,0.00,,,0.00,WUHU21636XXSP,2013-01-24 23:13:00,
2013-01-24 16:15:00,59.5,26.1,30.07,NW,315,11.8,19.2,28,0.00,,,0.00,WUHU21636XXSP,2013-01-24 23:15:00,
2013-01-24 16:18:00,59.4,25.9,30.07,NNW,337,15.4,26.1,28,0.00,,,0.00,WUHU21636XXSP,2013-01-24 23:18:00,
2013-01-24 16:20:00,59.2,25.9,30.07,NW,313,11.0,26.1,28,0.00,,,0.00,WUHU21636XXSP,2013-01-24 23:20:00,
2013-01-24 16:21:00,59.2,25.9,30.07,WNW,302,10.1,26.1,28,0.00,,,0.00,WUHU21636XXSP,2013-01-24 23:21:00,
2013-01-24 16:23:00,59.0,25.9,30.07,WNW,294,8.8,26.1,28,0.00,,,0.00,WUHU21636XXSP,2013-01-24 23:23:00,
2013-01-24 16:25:00,58.8,26.4,30.07,NW,315,8.9,26.1,29,0.00,,,0.00,WUHU21636XXSP,2013-01-24 23:25:00,
2013-01-24 16:26:00,58.8,26.4,30.07,NW,315,8.9,26.1,29,0.00,,,0.00,WUHU21636XXSP,2013-01-24 23:26:00,
2013-01-24 16:28:00,58.6,26.2,30.08,West,270,13.4,26.6,29,0.00,,,0.00,WUHU21636XXSP,2013-01-24 23:28:00,
2013-01-24 16:30:00,58.6,26.2,30.08,NW,325,8.6,26.6,29,0.00,,,0.00,WUHU21636XXSP,2013-01-24 23:30:00,
2013-01-24 16:31:00,58.6,26.2,30.08,West,270,11.4,26.6,29,0.00,,,0.00,WUHU21636XXSP,2013-01-24 23:31:00,
2013-01-24 16:32:00,58.6,26.2,30.08,NNE,22,10.2,26.6,29,0.00,,,0.00,WUHU21636XXSP,2013-01-24 23:32:00,
2013-01-24 16:34:00,58.3,26.1,30.08,NW,306,9.4,26.6,29,0.00,,,0.00,WUHU21636XXSP,2013-01-24 23:34:00,
2013-01-24 16:35:00,58.3,26.1,30.08,WNW,300,9.2,26.6,29,0.00,,,0.00,WUHU21636XXSP,2013-01-24 23:35:00,
2013-01-24 16:36:00,58.3,26.1,30.08,WNW,300,8.8,26.6,29,0.00,,,0.00,WUHU21636XXSP,2013-01-24 23:36:00,
2013-01-24 16:37:00,58.1,25.9,30.08,WNW,292,9.8,26.6,29,0.00,,,0.00,WUHU21636XXSP,2013-01-24 23:37:00,
2013-01-24 16:39:00,57.9,25.7,30.08,West,270,9.8,23.4,29,0.00,,,0.00,WUHU21636XXSP,2013-01-24 23:39:00,
2013-01-24 16:41:00,57.7,26.4,30.08,NNW,331,7.2,23.4,30,0.00,,,0.00,WUHU21636XXSP,2013-01-24 23:41:00,
2013-01-24 16:42:00,57.7,26.4,30.08,WNW,292,7.3,23.4,30,0.00,,,0.00,WUHU21636XXSP,2013-01-24 23:42:00,
2013-01-24 16:44:00,57.6,26.2,30.08,WNW,292,11.1,23.4,30,0.00,,,0.00,WUHU21636XXSP,2013-01-24 23:44:00,
2013-01-24 16:46:00,57.4,26.1,30.08,NW,315,9.3,21.6,30,0.00,,,0.00,WUHU21636XXSP,2013-01-24 23:46:00,
2013-01-24 16:47:00,57.0,25.9,30.08,WNW,298,8.7,19.4,30,0.00,,,0.00,WUHU21636XXSP,2013-01-24 23:47:00,
2013-01-24 16:49:00,56.8,25.7,30.08,WSW,247,8.0,20.1,30,0.00,,,0.00,WUHU21636XXSP,2013-01-24 23:49:00,
2013-01-24 16:51:00,56.8,26.4,30.08,West,270,8.9,20.1,31,0.00,,,0.00,WUHU21636XXSP,2013-01-24 23:51:00,
2013-01-24 16:52:00,56.8,26.4,30.08,West,270,7.6,20.1,31,0.00,,,0.00,WUHU21636XXSP,2013-01-24 23:52:00,
2013-01-24 16:54:00,56.5,26.1,30.08,WNW,295,6.7,20.1,31,0.00,,,0.00,WUHU21636XXSP,2013-01-24 23:54:00,
2013-01-24 16:56:00,56.3,25.9,30.08,NW,315,12.9,26.3,31,0.00,,,0.00,WUHU21636XXSP,2013-01-24 23:56:00,
2013-01-24 16:57:00,56.3,25.9,30.09,WNW,302,8.0,26.3,31,0.00,,,0.00,WUHU21636XXSP,2013-01-24 23:57:00,
2013-01-24 16:59:00,56.1,25.7,30.09,NNW,337,6.9,26.3,31,0.00,,,0.00,WUHU21636XXSP,2013-01-24 23:59:00,
2013-01-24 17:01:00,55.9,25.5,30.09,NW,315,10.0,26.3,31,0.00,,,0.00,WUHU21636XXSP,2013-01-25 00:01:00,
2013-01-24 17:02:00,55.9,25.5,30.09,NW,324,9.8,26.3,31,0.00,,,0.00,WUHU21636XXSP,2013-01-25 00:02:00,
2013-01-24 17:05:00,55.8,26.1,30.09,WNW,295,8.1,26.3,32,0.00,,,0.00,WUHU21636XXSP,2013-01-25 00:05:00,
2013-01-24 17:06:00,55.6,25.9,30.09,NW,306,9.0,23.4,32,0.00,,,0.00,WUHU21636XXSP,2013-01-25 00:06:00,
2013-01-24 17:07:00,55.6,25.9,30.09,WNW,301,9.1,23.4,32,0.00,,,0.00,WUHU21636XXSP,2013-01-25 00:07:00,
2013-01-24 17:10:00,55.2,25.5,30.09,NW,315,10.5,25.7,32,0.00,,,0.00,WUHU21636XXSP,2013-01-25 00:10:00,
2013-01-24 17:11:00,55.2,25.5,30.10,WNW,294,10.2,25.7,32,0.00,,,0.00,WUHU21636XXSP,2013-01-25 00:11:00,
2013-01-24 17:12:00,55.2,26.2,30.09,WNW,292,10.2,25.7,33,0.00,,,0.00,WUHU21636XXSP,2013-01-25 00:12:00,
2013-01-24 17:13:00,55.2,26.2,30.09,WNW,292,10.2,25.7,33,0.00,,,0.00,WUHU21636XXSP,2013-01-25 00:13:00,
2013-01-24 17:15:00,55.0,26.2,30.10,WSW,247,10.5,25.7,33,0.00,,,0.00,WUHU21636XXSP,2013-01-25 00:15:00,
2013-01-24 17:16:00,55.0,26.2,30.10,WSW,254,8.7,25.7,33,0.00,,,0.00,WUHU21636XXSP,2013-01-25 00:16:00,
2013-01-24 17:18:00,55.0,26.2,30.10,West,272,8.8,25.7,33,0.00,,,0.00,WUHU21636XXSP,2013-01-25 00:18:00,
2013-01-24 17:20:00,54.7,25.9,30.10,NNW,337,14.9,25.2,33,0.00,,,0.00,WUHU21636XXSP,2013-01-25 00:20:00,
2013-01-24 17:22:00,54.7,25.9,30.10,NW,318,9.9,25.2,33,0.00,,,0.00,WUHU21636XXSP,2013-01-25 00:22:00,
2013-01-24 17:23:00,54.7,26.6,30.10,WNW,292,8.9,25.2,34,0.00,,,0.00,WUHU21636XXSP,2013-01-25 00:23:00,
2013-01-24 17:25:00,54.5,26.5,30.10,NW,316,10.7,29.9,34,0.00,,,0.00,WUHU21636XXSP,2013-01-25 00:25:00,
2013-01-24 17:27:00,54.5,26.5,30.10,WNW,296,10.5,29.9,34,0.00,,,0.00,WUHU21636XXSP,2013-01-25 00:27:00,
2013-01-24 17:28:00,54.5,26.4,30.10,NW,315,11.1,29.9,34,0.00,,,0.00,WUHU21636XXSP,2013-01-25 00:28:00,
2013-01-24 17:31:00,54.3,27.0,30.10,WNW,292,12.5,29.9,35,0.00,,,0.00,WUHU21636XXSP,2013-01-25 00:31:00,
2013-01-24 17:32:00,54.3,27.0,30.10,WNW,291,10.5,29.9,35,0.00,,,0.00,WUHU21636XXSP,2013-01-25 00:32:00,
2013-01-24 17:33:00,54.1,27.5,30.10,WNW,297,9.8,29.9,36,0.00,,,0.00,WUHU21636XXSP,2013-01-25 00:33:00,
2013-01-24 17:36:00,54.1,26.8,30.10,WNW,292,12.0,27.9,35,0.00,,,0.00,WUHU21636XXSP,2013-01-25 00:36:00,
2013-01-24 17:37:00,54.0,26.6,30.10,NW,315,11.2,27.9,35,0.00,,,0.00,WUHU21636XXSP,2013-01-25 00:37:00,
2013-01-24 17:38:00,54.0,26.6,30.10,WSW,247,11.4,27.9,35,0.00,,,0.00,WUHU21636XXSP,2013-01-25 00:38:00,
2013-01-24 17:41:00,53.8,27.1,30.11,WNW,297,8.9,27.9,36,0.00,,,0.00,WUHU21636XXSP,2013-01-25 00:41:00,
2013-01-24 17:42:00,53.8,27.1,30.11,WNW,292,9.8,27.9,36,0.00,,,0.00,WUHU21636XXSP,2013-01-25 00:42:00,
2013-01-24 17:43:00,53.8,27.1,30.11,NW,315,11.1,27.9,36,0.00,,,0.00,WUHU21636XXSP,2013-01-25 00:43:00,
2013-01-24 17:46:00,53.4,27.5,30.11,NW,315,16.5,28.6,37,0.00,,,0.00,WUHU21636XXSP,2013-01-25 00:46:00,
2013-01-24 17:47:00,53.4,27.5,30.11,NW,318,12.3,28.6,37,0.00,,,0.00,WUHU21636XXSP,2013-01-25 00:47:00,
2013-01-24 17:48:00,53.2,27.3,30.11,NNW,337,19.2,28.6,37,0.00,,,0.00,WUHU21636XXSP,2013-01-25 00:48:00,
2013-01-24 17:51:00,53.2,27.3,30.11,WNW,292,17.4,28.6,37,0.00,,,0.00,WUHU21636XXSP,2013-01-25 00:51:00,
2013-01-24 17:52:00,53.1,27.1,30.11,NW,315,17.8,28.6,37,0.00,,,0.00,WUHU21636XXSP,2013-01-25 00:52:00,
2013-01-24 17:53:00,52.9,27.1,30.12,NW,318,15.4,28.6,37,0.00,,,0.00,WUHU21636XXSP,2013-01-25 00:53:00,
2013-01-24 17:54:00,52.9,27.1,30.12,NW,314,15.1,28.6,37,0.00,,,0.00,WUHU21636XXSP,2013-01-25 00:54:00,
2013-01-24 17:56:00,52.9,27.8,30.12,NW,319,14.0,25.5,38,0.00,,,0.00,WUHU21636XXSP,2013-01-25 00:56:00,
2013-01-24 17:57:00,52.7,27.5,30.12,NNW,337,17.6,25.5,38,0.00,,,0.00,WUHU21636XXSP,2013-01-25 00:57:00,
2013-01-24 17:59:00,52.7,27.5,30.12,NW,315,21.6,28.8,38,0.00,,,0.00,WUHU21636XXSP,2013-01-25 00:59:00,
2013-01-24 18:01:00,52.5,27.5,30.12,NW,310,13.5,28.8,38,0.00,,,0.00,WUHU21636XXSP,2013-01-25 01:01:00,
2013-01-24 18:02:00,52.5,27.5,30.12,NW,315,17.2,28.8,38,0.00,,,0.00,WUHU21636XXSP,2013-01-25 01:02:00,
2013-01-24 18:04:00,52.5,27.5,30.12,NW,315,20.8,29.3,38,0.00,,,0.00,WUHU21636XXSP,2013-01-25 01:04:00,
2013-01-24 18:06:00,52.5,27.5,30.12,NW,326,18.9,32.4,38,0.00,,,0.00,WUHU21636XXSP,2013-01-25 01:06:00,
2013-01-24 18:07:00,52.5,27.5,30.12,NW,324,18.2,32.4,38,0.00,,,0.00,WUHU21636XXSP,2013-01-25 01:07:00,
2013-01-24 18:09:00,52.3,27.3,30.12,NW,315,18.5,32.4,38,0.00,,,0.00,WUHU21636XXSP,2013-01-25 01:09:00,
2013-01-24 18:10:00,52.3,27.3,30.12,NW,324,18.2,32.4,38,0.00,,,0.00,WUHU21636XXSP,2013-01-25 01:10:00,
2013-01-24 18:11:00,52.3,27.9,30.12,NW,315,19.4,32.4,39,0.00,,,0.00,WUHU21636XXSP,2013-01-25 01:11:00,
2013-01-24 18:13:00,52.3,27.9,30.12,NW,323,18.5,32.4,39,0.00,,,0.00,WUHU21636XXSP,2013-01-25 01:13:00,
2013-01-24 18:14:00,52.3,27.9,30.12,NNW,332,17.0,32.4,39,0.00,,,0.00,WUHU21636XXSP,2013-01-25 01:14:00,
2013-01-24 18:15:00,52.2,27.9,30.12,NW,326,17.5,32.4,39,0.00,,,0.00,WUHU21636XXSP,2013-01-25 01:15:00,
2013-01-24 18:16:00,52.2,27.9,30.12,NW,315,16.3,27.5,39,0.00,,,0.00,WUHU21636XXSP,2013-01-25 01:16:00,
2013-01-24 18:18:00,52.0,27.7,30.12,North,0,17.0,27.5,39,0.00,,,0.00,WUHU21636XXSP,2013-01-25 01:18:00,
2013-01-24 18:19:00,52.0,27.7,30.13,NNW,331,15.0,27.5,39,0.00,,,0.00,WUHU21636XXSP,2013-01-25 01:19:00,
2013-01-24 18:20:00,52.0,27.7,30.13,NW,315,17.4,27.5,39,0.00,,,0.00,WUHU21636XXSP,2013-01-25 01:20:00,
2013-01-24 18:21:00,52.0,27.7,30.13,NW,322,14.7,27.5,39,0.00,,,0.00,WUHU21636XXSP,2013-01-25 01:21:00,
2013-01-24 18:23:00,51.8,27.5,30.13,NW,320,13.6,26.8,39,0.00,,,0.00,WUHU21636XXSP,2013-01-25 01:23:00,
2013-01-24 18:25:00,51.6,27.3,30.13,NW,326,12.9,26.8,39,0.00,,,0.00,WUHU21636XXSP,2013-01-25 01:25:00,
2013-01-24 18:27:00,51.6,27.3,30.13,NNW,337,12.3,25.7,39,0.00,,,0.00,WUHU21636XXSP,2013-01-25 01:27:00,
2013-01-24 18:28:00,51.6,27.9,30.13,NW,324,13.4,25.7,40,0.00,,,0.00,WUHU21636XXSP,2013-01-25 01:28:00,
2013-01-24 18:30:00,51.6,28.0,30.13,NW,312,12.4,25.7,40,0.00,,,0.00,WUHU21636XXSP,2013-01-25 01:30:00,
2013-01-24 18:32:00,51.4,27.7,30.13,NNW,332,13.8,24.1,40,0.00,,,0.00,WUHU21636XXSP,2013-01-25 01:32:00,
2013-01-24 18:33:00,51.4,27.9,30.13,NW,317,12.6,24.1,40,0.00,,,0.00,WUHU21636XXSP,2013-01-25 01:33:00,
2013-01-24 18:35:00,51.4,27.9,30.13,NW,315,14.7,24.1,40,0.00,,,0.00,WUHU21636XXSP,2013-01-25 01:35:00,
2013-01-24 18:36:00,51.4,27.9,30.13,WSW,250,12.6,24.1,40,0.00,,,0.00,WUHU21636XXSP,2013-01-25 01:36:00,
2013-01-24 18:37:00,51.4,27.9,30.13,WNW,292,13.1,24.1,40,0.00,,,0.00,WUHU21636XXSP,2013-01-25 01:37:00,
2013-01-24 18:39:00,51.4,27.7,30.13,NW,313,12.4,24.1,40,0.00,,,0.00,WUHU21636XXSP,2013-01-25 01:39:00,
2013-01-24 18:40:00,51.4,27.7,30.13,NW,313,12.4,24.1,40,0.00,,,0.00,WUHU21636XXSP,2013-01-25 01:40:00,
2013-01-24 18:41:00,51.4,27.9,30.14,NW,315,15.6,24.6,40,0.00,,,0.00,WUHU21636XXSP,2013-01-25 01:41:00,
2013-01-24 18:42:00,51.4,27.9,30.14,NW,315,17.2,34.6,40,0.00,,,0.00,WUHU21636XXSP,2013-01-25 01:42:00,
2013-01-24 18:44:00,51.4,27.9,30.14,NNW,333,10.6,34.6,40,0.00,,,0.00,WUHU21636XXSP,2013-01-25 01:44:00,
2013-01-24 18:45:00,51.4,27.9,30.14,NNW,337,14.5,34.6,40,0.00,,,0.00,WUHU21636XXSP,2013-01-25 01:45:00,
2013-01-24 18:46:00,51.4,28.3,30.14,NW,320,13.3,34.6,41,0.00,,,0.00,WUHU21636XXSP,2013-01-25 01:46:00,
2013-01-24 18:47:00,51.4,27.9,30.14,NNW,333,11.8,34.6,40,0.00,,,0.00,WUHU21636XXSP,2013-01-25 01:47:00,
2013-01-24 18:49:00,51.4,28.4,30.14,WNW,292,9.6,34.6,41,0.00,,,0.00,WUHU21636XXSP,2013-01-25 01:49:00,
2013-01-24 18:50:00,51.3,28.2,30.14,NW,315,11.8,34.6,41,0.00,,,0.00,WUHU21636XXSP,2013-01-25 01:50:00,
2013-01-24 18:51:00,51.3,28.2,30.14,NW,315,8.7,34.6,41,0.00,,,0.00,WUHU21636XXSP,2013-01-25 01:51:00,
2013-01-24 18:52:00,51.1,28.0,30.14,NNW,327,7.7,24.3,41,0.00,,,0.00,WUHU21636XXSP,2013-01-25 01:52:00,
2013-01-24 18:54:00,51.1,28.0,30.14,NW,315,11.4,24.3,41,0.00,,,0.00,WUHU21636XXSP,2013-01-25 01:54:00,
2013-01-24 18:55:00,51.1,28.0,30.14,West,270,10.2,24.3,41,0.00,,,0.00,WUHU21636XXSP,2013-01-25 01:55:00,
2013-01-24 18:56:00,51.1,28.0,30.14,WNW,295,9.7,24.3,41,0.00,,,0.00,WUHU21636XXSP,2013-01-25 01:56:00,
2013-01-24 18:58:00,51.1,28.0,30.14,NNE,22,7.8,21.6,41,0.00,,,0.00,WUHU21636XXSP,2013-01-25 01:58:00,
2013-01-24 18:59:00,51.1,28.0,30.14,WNW,292,8.5,21.6,41,0.00,,,0.00,WUHU21636XXSP,2013-01-25 01:59:00,
2013-01-24 19:01:00,51.1,28.0,30.14,WNW,292,7.9,21.6,41,0.00,,,0.00,WUHU21636XXSP,2013-01-25 02:01:00,
2013-01-24 19:03:00,51.1,28.0,30.14,WSW,247,11.8,21.6,41,0.00,,,0.00,WUHU21636XXSP,2013-01-25 02:03:00,
2013-01-24 19:05:00,51.1,28.0,30.14,NNW,337,9.6,21.6,41,0.00,,,0.00,WUHU21636XXSP,2013-01-25 02:05:00,
2013-01-24 19:06:00,51.1,28.0,30.13,NW,308,8.3,21.6,41,0.00,,,0.00,WUHU21636XXSP,2013-01-25 02:06:00,
2013-01-24 19:08:00,51.1,28.0,30.13,NW,310,7.6,21.6,41,0.00,,,0.00,WUHU21636XXSP,2013-01-25 02:08:00,
2013-01-24 19:10:00,51.1,28.0,30.13,West,268,7.8,21.6,41,0.00,,,0.00,WUHU21636XXSP,2013-01-25 02:10:00,
2013-01-24 19:11:00,51.1,28.0,30.13,WNW,294,5.5,21.6,41,0.00,,,0.00,WUHU21636XXSP,2013-01-25 02:11:00,
2013-01-24 19:13:00,51.1,28.0,30.13,WNW,299,8.0,20.8,41,0.00,,,0.00,WUHU21636XXSP,2013-01-25 02:13:00,
2013-01-24 19:15:00,51.1,28.0,30.13,NW,308,6.8,20.8,41,0.00,,,0.00,WUHU21636XXSP,2013-01-25 02:15:00,
2013-01-24 19:16:00,50.9,27.9,30.13,WNW,292,8.5,20.8,41,0.00,,,0.00,WUHU21636XXSP,2013-01-25 02:16:00,
2013-01-24 19:19:00,50.9,27.9,30.13,WNW,292,8.7,20.8,41,0.00,,,0.00,WUHU21636XXSP,2013-01-25 02:19:00,
2013-01-24 19:20:00,50.9,27.9,30.13,WNW,283,6.9,20.8,41,0.00,,,0.00,WUHU21636XXSP,2013-01-25 02:20:00,
2013-01-24 19:22:00,50.7,27.7,30.13,NW,315,9.8,23.4,41,0.00,,,0.00,WUHU21636XXSP,2013-01-25 02:22:00,
2013-01-24 19:24:00,50.7,27.7,30.13,WNW,296,7.3,23.4,41,0.00,,,0.00,WUHU21636XXSP,2013-01-25 02:24:00,
2013-01-24 19:25:00,50.7,27.7,30.13,WNW,283,7.7,23.4,41,0.00,,,0.00,WUHU21636XXSP,2013-01-25 02:25:00,
2013-01-24 19:27:00,50.7,27.7,30.13,WNW,292,10.0,23.4,41,0.00,,,0.00,WUHU21636XXSP,2013-01-25 02:27:00,
2013-01-24 19:29:00,50.7,27.7,30.13,West,276,7.8,23.4,41,0.00,,,0.00,WUHU21636XXSP,2013-01-25 02:29:00,
2013-01-24 19:30:00,50.7,27.7,30.13,WNW,292,8.0,23.4,41,0.00,,,0.00,WUHU21636XXSP,2013-01-25 02:30:00,
2013-01-24 19:32:00,50.7,27.7,30.13,WNW,287,7.7,20.1,41,0.00,,,0.00,WUHU21636XXSP,2013-01-25 02:32:00,
2013-01-24 19:34:00,50.7,27.7,30.13,WNW,284,7.2,19.0,41,0.00,,,0.00,WUHU21636XXSP,2013-01-25 02:34:00,
2013-01-24 19:35:00,50.7,27.7,30.13,WNW,282,7.2,19.0,41,0.00,,,0.00,WUHU21636XXSP,2013-01-25 02:35:00,
2013-01-24 19:37:00,50.5,27.5,30.13,West,270,7.0,19.0,41,0.00,,,0.00,WUHU21636XXSP,2013-01-25 02:37:00,
2013-01-24 19:39:00,50.5,27.5,30.13,West,270,11.6,18.1,41,0.00,,,0.00,WUHU21636XXSP,2013-01-25 02:39:00,
2013-01-24 19:40:00,50.5,27.5,30.13,WSW,247,12.0,18.1,41,0.00,,,0.00,WUHU21636XXSP,2013-01-25 02:40:00,
2013-01-24 19:42:00,50.5,27.5,30.13,West,275,10.5,18.1,41,0.00,,,0.00,WUHU21636XXSP,2013-01-25 02:42:00,
2013-01-24 19:45:00,50.5,27.5,30.13,West,270,12.9,23.7,41,0.00,,,0.00,WUHU21636XXSP,2013-01-25 02:45:00,
2013-01-24 19:46:00,50.5,27.5,30.13,WNW,294,11.4,23.7,41,0.00,,,0.00,WUHU21636XXSP,2013-01-25 02:46:00,
2013-01-24 19:47:00,50.5,27.5,30.13,WNW,290,10.4,23.7,41,0.00,,,0.00,WUHU21636XXSP,2013-01-25 02:47:00,
2013-01-24 19:48:00,50.5,27.5,30.13,NW,308,9.4,23.7,41,0.00,,,0.00,WUHU21636XXSP,2013-01-25 02:48:00,
2013-01-24 19:50:00,50.5,27.5,30.13,WNW,292,10.7,23.7,41,0.00,,,0.00,WUHU21636XXSP,2013-01-25 02:50:00,
2013-01-24 19:51:00,50.5,27.5,30.13,WNW,286,10.1,23.7,41,0.00,,,0.00,WUHU21636XXSP,2013-01-25 02:51:00,
2013-01-24 19:52:00,50.5,27.5,30.13,West,270,12.0,23.7,41,0.00,,,0.00,WUHU21636XXSP,2013-01-25 02:52:00,
2013-01-24 19:53:00,50.5,27.5,30.13,North,0,10.5,23.7,41,0.00,,,0.00,WUHU21636XXSP,2013-01-25 02:53:00,
2013-01-24 19:55:00,50.5,27.5,30.13,West,270,12.0,22.1,41,0.00,,,0.00,WUHU21636XXSP,2013-01-25 02:55:00,
2013-01-24 19:56:00,50.5,27.5,30.13,West,270,11.6,22.1,41,0.00,,,0.00,WUHU21636XXSP,2013-01-25 02:56:00,
2013-01-24 19:57:00,50.5,27.5,30.14,WNW,292,12.0,21.6,41,0.00,,,0.00,WUHU21636XXSP,2013-01-25 02:57:00,
2013-01-24 19:58:00,50.7,27.7,30.14,WNW,282,12.4,21.6,41,0.00,,,0.00,WUHU21636XXSP,2013-01-25 02:58:00,
2013-01-24 20:00:00,50.7,27.7,30.14,WSW,247,11.4,21.6,40,0.00,,,0.00,WUHU21636XXSP,2013-01-25 03:00:00,
2013-01-24 20:01:00,50.7,27.1,30.15,West,276,11.1,21.6,40,0.00,,,0.00,WUHU21636XXSP,2013-01-25 03:01:00,
2013-01-24 20:02:00,50.7,27.1,30.15,West,276,10.6,21.6,40,0.00,,,0.00,WUHU21636XXSP,2013-01-25 03:02:00,
2013-01-24 20:03:00,50.7,27.1,30.15,WNW,292,13.1,21.6,40,0.00,,,0.00,WUHU21636XXSP,2013-01-25 03:03:00,
2013-01-24 20:05:00,50.9,27.3,30.15,West,278,12.0,22.1,40,0.00,,,0.00,WUHU21636XXSP,2013-01-25 03:05:00,
2013-01-24 20:06:00,50.9,27.3,30.15,West,277,10.3,22.1,40,0.00,,,0.00,WUHU21636XXSP,2013-01-25 03:06:00,
2013-01-24 20:07:00,50.9,27.3,30.15,WNW,284,8.5,22.1,40,0.00,,,0.00,WUHU21636XXSP,2013-01-25 03:07:00,
2013-01-24 20:09:00,50.9,27.3,30.15,West,270,7.8,22.1,40,0.00,,,0.00,WUHU21636XXSP,2013-01-25 03:09:00,
2013-01-24 20:10:00,50.9,27.3,30.15,West,270,7.3,22.1,40,0.00,,,0.00,WUHU21636XXSP,2013-01-25 03:10:00,
2013-01-24 20:11:00,50.9,27.3,30.15,West,270,7.4,22.1,40,0.00,,,0.00,WUHU21636XXSP,2013-01-25 03:11:00,
2013-01-24 20:13:00,50.7,27.1,30.15,West,275,7.4,22.1,40,0.00,,,0.00,WUHU21636XXSP,2013-01-25 03:13:00,
2013-01-24 20:14:00,50.7,27.1,30.15,West,270,6.7,22.1,40,0.00,,,0.00,WUHU21636XXSP,2013-01-25 03:14:00,
2013-01-24 20:15:00,50.7,27.1,30.15,West,273,5.9,16.3,40,0.00,,,0.00,WUHU21636XXSP,2013-01-25 03:15:00,
2013-01-24 20:17:00,50.7,27.1,30.15,West,270,6.4,13.1,40,0.00,,,0.00,WUHU21636XXSP,2013-01-25 03:17:00,
2013-01-24 20:18:00,50.5,27.0,30.15,SW,225,8.7,13.1,40,0.00,,,0.00,WUHU21636XXSP,2013-01-25 03:18:00,
2013-01-24 20:19:00,50.5,27.0,30.15,West,260,7.2,13.1,40,0.00,,,0.00,WUHU21636XXSP,2013-01-25 03:19:00,
2013-01-24 20:20:00,50.5,27.0,30.15,WNW,292,7.8,13.1,40,0.00,,,0.00,WUHU21636XXSP,2013-01-25 03:20:00,
2013-01-24 20:22:00,50.5,27.0,30.14,West,276,8.1,13.1,40,0.00,,,0.00,WUHU21636XXSP,2013-01-25 03:22:00,
2013-01-24 20:23:00,50.5,27.0,30.14,West,275,8.0,13.1,40,0.00,,,0.00,WUHU21636XXSP,2013-01-25 03:23:00,
2013-01-24 20:24:00,50.4,27.3,30.14,West,263,7.3,13.1,41,0.00,,,0.00,WUHU21636XXSP,2013-01-25 03:24:00,
2013-01-24 20:25:00,50.4,27.3,30.14,WNW,292,10.2,16.7,41,0.00,,,0.00,WUHU21636XXSP,2013-01-25 03:25:00,
2013-01-24 20:27:00,50.4,27.3,30.14,WNW,292,12.5,19.0,41,0.00,,,0.00,WUHU21636XXSP,2013-01-25 03:27:00,
2013-01-24 20:28:00,50.5,27.5,30.14,West,277,11.8,19.0,41,0.00,,,0.00,WUHU21636XXSP,2013-01-25 03:28:00,
2013-01-24 20:29:00,50.5,27.5,30.14,West,277,9.9,19.0,41,0.00,,,0.00,WUHU21636XXSP,2013-01-25 03:29:00,
2013-01-24 20:30:00,50.5,27.5,30.14,West,270,13.4,21.4,41,0.00,,,0.00,WUHU21636XXSP,2013-01-25 03:30:00,
2013-01-24 20:32:00,50.5,27.5,30.14,West,265,11.0,21.4,41,0.00,,,0.00,WUHU21636XXSP,2013-01-25 03:32:00,
2013-01-24 20:33:00,50.5,27.0,30.14,West,264,9.6,21.4,40,0.00,,,0.00,WUHU21636XXSP,2013-01-25 03:33:00,
2013-01-24 20:34:00,50.5,27.0,30.13,West,270,8.5,21.4,40,0.00,,,0.00,WUHU21636XXSP,2013-01-25 03:34:00,
2013-01-24 20:36:00,50.5,27.0,30.13,WNW,292,7.8,21.4,40,0.00,,,0.00,WUHU21636XXSP,2013-01-25 03:36:00,
2013-01-24 20:37:00,50.5,27.0,30.13,West,281,6.9,21.4,40,0.00,,,0.00,WUHU21636XXSP,2013-01-25 03:37:00,
2013-01-24 20:38:00,50.5,27.0,30.13,West,270,9.3,21.4,40,0.00,,,0.00,WUHU21636XXSP,2013-01-25 03:38:00,
2013-01-24 20:39:00,50.4,27.3,30.13,West,270,6.7,21.4,41,0.00,,,0.00,WUHU21636XXSP,2013-01-25 03:39:00,
2013-01-24 20:41:00,50.4,27.3,30.14,West,270,4.3,16.3,41,0.00,,,0.00,WUHU21636XXSP,2013-01-25 03:41:00,
2013-01-24 20:42:00,50.2,27.3,30.14,West,270,4.9,12.9,41,0.00,,,0.00,WUHU21636XXSP,2013-01-25 03:42:00,
2013-01-24 20:43:00,50.2,27.3,30.14,West,270,4.9,12.9,41,0.00,,,0.00,WUHU21636XXSP,2013-01-25 03:43:00,
2013-01-24 20:45:00,50.2,27.3,30.14,West,280,4.9,12.9,41,0.00,,,0.00,WUHU21636XXSP,2013-01-25 03:45:00,
2013-01-24 20:46:00,50.0,27.1,30.14,WNW,292,5.5,11.4,41,0.00,,,0.00,WUHU21636XXSP,2013-01-25 03:46:00,
2013-01-24 20:47:00,50.0,27.1,30.14,West,281,7.0,15.2,41,0.00,,,0.00,WUHU21636XXSP,2013-01-25 03:47:00,
2013-01-24 20:48:00,50.0,27.1,30.15,West,280,7.1,15.2,41,0.00,,,0.00,WUHU21636XXSP,2013-01-25 03:48:00,
2013-01-24 20:50:00,50.2,27.3,30.15,WNW,298,7.6,21.2,41,0.00,,,0.00,WUHU21636XXSP,2013-01-25 03:50:00,
2013-01-24 20:51:00,50.2,27.3,30.15,WNW,292,11.1,21.2,41,0.00,,,0.00,WUHU21636XXSP,2013-01-25 03:51:00,
2013-01-24 20:52:00,50.2,27.3,30.15,WNW,299,8.0,21.2,41,0.00,,,0.00,WUHU21636XXSP,2013-01-25 03:52:00,
2013-01-24 20:53:00,50.2,27.3,30.15,West,270,7.3,21.2,41,0.00,,,0.00,WUHU21636XXSP,2013-01-25 03:53:00,
2013-01-24 20:55:00,50.4,27.3,30.15,NNW,337,10.0,21.2,41,0.00,,,0.00,WUHU21636XXSP,2013-01-25 03:55:00,
2013-01-24 20:57:00,50.4,27.3,30.15,NW,315,8.2,21.2,41,0.00,,,0.00,WUHU21636XXSP,2013-01-25 03:57:00,
2013-01-24 20:58:00,50.4,27.3,30.15,NW,315,8.2,21.2,41,0.00,,,0.00,WUHU21636XXSP,2013-01-25 03:58:00,
2013-01-24 21:00:00,50.4,27.3,30.15,WNW,295,5.9,20.8,41,0.00,,,0.00,WUHU21636XXSP,2013-01-25 04:00:00,
2013-01-24 21:03:00,50.4,27.3,30.14,NW,309,6.7,20.8,41,0.00,,,0.00,WUHU21636XXSP,2013-01-25 04:03:00,
2013-01-24 21:06:00,50.4,27.3,30.15,NW,315,14.9,21.0,41,0.00,,,0.00,WUHU21636XXSP,2013-01-25 04:06:00,
2013-01-24 21:08:00,50.4,27.3,30.15,NNW,337,14.7,23.9,41,0.00,,,0.00,WUHU21636XXSP,2013-01-25 04:08:00,
2013-01-24 21:11:00,50.4,26.2,30.15,NNE,22,8.9,23.9,39,0.00,,,0.00,WUHU21636XXSP,2013-01-25 04:11:00,
2013-01-24 21:13:00,50.2,26.1,30.15,NE,45,7.3,23.9,39,0.00,,,0.00,WUHU21636XXSP,2013-01-25 04:13:00,
2013-01-24 21:16:00,49.6,26.2,30.15,NNW,337,8.2,23.9,40,0.00,,,0.00,WUHU21636XXSP,2013-01-25 04:16:00,
2013-01-24 21:18:00,49.6,26.2,30.15,NNW,337,4.5,16.3,40,0.00,,,0.00,WUHU21636XXSP,2013-01-25 04:18:00,
2013-01-24 21:19:00,49.6,26.2,30.15,NNW,337,3.5,16.3,40,0.00,,,0.00,WUHU21636XXSP,2013-01-25 04:19:00,
2013-01-24 21:21:00,49.3,25.9,30.15,NNW,337,2.0,12.7,40,0.00,,,0.00,WUHU21636XXSP,2013-01-25 04:21:00,
2013-01-24 21:23:00,49.1,25.7,30.15,NNW,337,1.6,12.5,40,0.00,,,0.00,WUHU21636XXSP,2013-01-25 04:23:00,
2013-01-24 21:24:00,49.1,25.7,30.15,NNW,337,1.2,12.5,40,0.00,,,0.00,WUHU21636XXSP,2013-01-25 04:24:00,
2013-01-24 21:27:00,48.9,25.5,30.14,NNW,337,0.0,3.8,40,0.00,,,0.00,WUHU21636XXSP,2013-01-25 04:27:00,
2013-01-24 21:28:00,48.9,25.5,30.14,NW,315,0.0,3.8,40,0.00,,,0.00,WUHU21636XXSP,2013-01-25 04:28:00,
2013-01-24 21:29:00,48.9,25.5,30.14,NW,315,0.0,2.0,40,0.00,,,0.00,WUHU21636XXSP,2013-01-25 04:29:00,
2013-01-24 21:32:00,48.4,25.5,30.15,NNW,337,6.7,10.5,41,0.00,,,0.00,WUHU21636XXSP,2013-01-25 04:32:00,
2013-01-24 21:33:00,48.4,25.5,30.15,NNE,22,10.9,14.7,41,0.00,,,0.00,WUHU21636XXSP,2013-01-25 04:33:00,
2013-01-24 21:34:00,48.4,25.5,30.16,NNE,22,8.7,14.7,41,0.00,,,0.00,WUHU21636XXSP,2013-01-25 04:34:00,
2013-01-24 21:37:00,48.0,25.3,30.16,NNE,22,7.6,18.1,41,0.00,,,0.00,WUHU21636XXSP,2013-01-25 04:37:00,
2013-01-24 21:38:00,48.0,25.3,30.16,NE,44,7.0,18.1,41,0.00,,,0.00,WUHU21636XXSP,2013-01-25 04:38:00,
2013-01-24 21:39:00,47.8,25.7,30.16,NE,45,7.6,18.1,42,0.00,,,0.00,WUHU21636XXSP,2013-01-25 04:39:00,
2013-01-24 21:42:00,47.5,25.3,30.16,North,11,3.6,18.1,42,0.00,,,0.00,WUHU21636XXSP,2013-01-25 04:42:00,
2013-01-24 21:43:00,47.5,25.3,30.16,North,0,4.9,18.1,42,0.00,,,0.00,WUHU21636XXSP,2013-01-25 04:43:00,
2013-01-24 21:44:00,47.5,25.3,30.16,North,0,4.9,18.1,42,0.00,,,0.00,WUHU21636XXSP,2013-01-25 04:44:00,
2013-01-24 21:45:00,47.5,25.3,30.16,North,0,4.9,16.5,42,0.00,,,0.00,WUHU21636XXSP,2013-01-25 04:45:00,
2013-01-24 21:47:00,47.3,25.2,30.15,NNE,19,2.8,12.3,42,0.00,,,0.00,WUHU21636XXSP,2013-01-25 04:47:00,
2013-01-24 21:48:00,47.1,25.0,30.15,NE,45,4.0,12.3,42,0.00,,,0.00,WUHU21636XXSP,2013-01-25 04:48:00,
2013-01-24 21:49:00,47.1,25.0,30.15,NE,45,4.0,4.9,42,0.00,,,0.00,WUHU21636XXSP,2013-01-25 04:49:00,
2013-01-24 21:50:00,47.1,25.0,30.15,NE,45,4.0,4.9,42,0.00,,,0.00,WUHU21636XXSP,2013-01-25 04:50:00,
2013-01-24 21:53:00,46.9,24.8,30.15,North,0,2.4,4.9,43,0.00,,,0.00,WUHU21636XXSP,2013-01-25 04:53:00,
2013-01-24 21:54:00,46.9,24.8,30.15,North,0,2.4,4.9,43,0.00,,,0.00,WUHU21636XXSP,2013-01-25 04:54:00,
2013-01-24 21:55:00,46.8,25.2,30.15,NNE,22,4.2,4.9,43,0.00,,,0.00,WUHU21636XXSP,2013-01-25 04:55:00,
2013-01-24 21:58:00,46.6,25.5,30.15,NE,52,4.4,8.7,44,0.00,,,0.00,WUHU21636XXSP,2013-01-25 04:58:00,
2013-01-24 21:59:00,46.6,25.5,30.15,NE,47,4.1,8.7,44,0.00,,,0.00,WUHU21636XXSP,2013-01-25 04:59:00,
2013-01-24 22:00:00,46.6,25.5,30.14,NE,45,3.3,8.7,44,0.00,,,0.00,WUHU21636XXSP,2013-01-25 05:00:00,
2013-01-24 22:01:00,46.6,25.5,30.14,NE,45,2.7,8.7,43,0.00,,,0.00,WUHU21636XXSP,2013-01-25 05:01:00,
2013-01-24 22:05:00,46.4,25.0,30.13,NW,319,4.1,8.7,43,0.00,,,0.00,WUHU21636XXSP,2013-01-25 05:05:00,
2013-01-24 22:06:00,46.4,25.0,30.14,NW,315,3.9,8.7,43,0.00,,,0.00,WUHU21636XXSP,2013-01-25 05:06:00,
2013-01-24 22:07:00,46.4,25.0,30.14,NW,315,3.8,8.0,43,0.00,,,0.00,WUHU21636XXSP,2013-01-25 05:07:00,
2013-01-24 22:10:00,46.2,25.3,30.14,NW,315,1.3,7.1,44,0.00,,,0.00,WUHU21636XXSP,2013-01-25 05:10:00,
2013-01-24 22:11:00,46.0,25.2,30.15,NE,45,2.0,7.1,44,0.00,,,0.00,WUHU21636XXSP,2013-01-25 05:11:00,
2013-01-24 22:12:00,46.0,25.2,30.15,NE,45,2.0,7.1,44,0.00,,,0.00,WUHU21636XXSP,2013-01-25 05:12:00,
2013-01-24 22:16:00,45.5,25.2,30.15,NNE,22,10.2,11.1,45,0.00,,,0.00,WUHU21636XXSP,2013-01-25 05:16:00,
2013-01-24 22:17:00,45.5,25.2,30.16,NNE,22,11.8,19.6,45,0.00,,,0.00,WUHU21636XXSP,2013-01-25 05:17:00,
2013-01-24 22:21:00,45.7,25.9,30.17,North,8,9.7,21.0,46,0.00,,,0.00,WUHU21636XXSP,2013-01-25 05:21:00,
2013-01-24 22:22:00,45.7,25.9,30.17,NNE,22,10.7,21.0,46,0.00,,,0.00,WUHU21636XXSP,2013-01-25 05:22:00,
2013-01-24 22:26:00,46.0,25.7,30.17,NNE,13,8.6,21.0,45,0.00,,,0.00,WUHU21636XXSP,2013-01-25 05:26:00,
2013-01-24 22:27:00,46.2,25.9,30.17,NNW,337,9.6,21.0,45,0.00,,,0.00,WUHU21636XXSP,2013-01-25 05:27:00,
2013-01-24 22:31:00,46.9,25.9,30.16,North,352,8.8,19.2,44,0.00,,,0.00,WUHU21636XXSP,2013-01-25 05:31:00,
2013-01-24 22:32:00,46.9,25.9,30.16,NNW,334,6.7,17.6,44,0.00,,,0.00,WUHU21636XXSP,2013-01-25 05:32:00,
2013-01-24 22:36:00,46.9,25.9,30.15,NW,315,9.8,17.2,44,0.00,,,0.00,WUHU21636XXSP,2013-01-25 05:36:00,
2013-01-24 22:37:00,46.9,25.9,30.15,NW,315,11.6,17.2,44,0.00,,,0.00,WUHU21636XXSP,2013-01-25 05:37:00,
2013-01-24 22:41:00,46.9,25.9,30.15,NNW,335,11.0,15.4,44,0.00,,,0.00,WUHU21636XXSP,2013-01-25 05:41:00,
2013-01-24 22:42:00,46.9,25.9,30.15,NNW,345,8.7,15.4,44,0.00,,,0.00,WUHU21636XXSP,2013-01-25 05:42:00,
2013-01-24 22:46:00,46.8,25.7,30.15,North,0,6.4,15.4,44,0.00,,,0.00,WUHU21636XXSP,2013-01-25 05:46:00,
2013-01-24 22:47:00,46.6,25.5,30.15,North,5,6.1,15.4,44,0.00,,,0.00,WUHU21636XXSP,2013-01-25 05:47:00,
2013-01-24 22:48:00,46.6,25.5,30.16,North,0,5.5,15.4,44,0.00,,,0.00,WUHU21636XXSP,2013-01-25 05:48:00,
2013-01-24 22:51:00,46.2,25.9,30.16,North,6,5.7,12.9,45,0.00,,,0.00,WUHU21636XXSP,2013-01-25 05:51:00,
2013-01-24 22:52:00,46.0,25.7,30.16,North,0,6.0,12.9,45,0.00,,,0.00,WUHU21636XXSP,2013-01-25 05:52:00,
2013-01-24 22:53:00,46.0,25.7,30.16,North,2,5.4,12.9,45,0.00,,,0.00,WUHU21636XXSP,2013-01-25 05:53:00,
2013-01-24 22:56:00,46.0,25.7,30.15,NNW,331,8.5,11.6,45,0.00,,,0.00,WUHU21636XXSP,2013-01-25 05:56:00,
2013-01-24 22:57:00,46.0,25.7,30.15,NNW,331,8.4,11.6,45,0.00,,,0.00,WUHU21636XXSP,2013-01-25 05:57:00,
2013-01-24 22:58:00,46.0,25.7,30.15,NNW,337,9.3,12.0,45,0.00,,,0.00,WUHU21636XXSP,2013-01-25 05:58:00,
2013-01-24 23:02:00,46.0,25.7,30.16,NNW,337,8.8,12.7,45,0.00,,,0.00,WUHU21636XXSP,2013-01-25 06:02:00,
2013-01-24 23:03:00,46.0,25.7,30.16,NNW,337,7.7,12.7,45,0.00,,,0.00,WUHU21636XXSP,2013-01-25 06:03:00,
2013-01-24 23:07:00,46.0,25.7,30.16,NW,315,2.2,12.7,45,0.00,,,0.00,WUHU21636XXSP,2013-01-25 06:07:00,
2013-01-24 23:08:00,46.0,26.2,30.15,NNW,337,8.2,12.7,46,0.00,,,0.00,WUHU21636XXSP,2013-01-25 06:08:00,
2013-01-24 23:09:00,46.0,26.2,30.15,NW,315,8.2,12.7,46,0.00,,,0.00,WUHU21636XXSP,2013-01-25 06:09:00,
2013-01-24 23:12:00,46.2,26.4,30.15,NNW,337,8.7,15.2,46,0.00,,,0.00,WUHU21636XXSP,2013-01-25 06:12:00,
2013-01-24 23:13:00,46.2,26.4,30.15,NW,315,11.6,16.3,46,0.00,,,0.00,WUHU21636XXSP,2013-01-25 06:13:00,
2013-01-24 23:14:00,46.2,26.4,30.15,NW,315,11.6,16.3,46,0.00,,,0.00,WUHU21636XXSP,2013-01-25 06:14:00,
2013-01-24 23:17:00,46.6,26.6,30.15,NW,315,11.4,16.3,46,0.00,,,0.00,WUHU21636XXSP,2013-01-25 06:17:00,
2013-01-24 23:18:00,46.6,26.6,30.15,NW,317,11.4,16.3,46,0.00,,,0.00,WUHU21636XXSP,2013-01-25 06:18:00,
2013-01-24 23:19:00,46.8,26.8,30.15,NW,315,11.4,16.3,46,0.00,,,0.00,WUHU21636XXSP,2013-01-25 06:19:00,
2013-01-24 23:22:00,46.8,26.2,30.15,NW,326,10.7,16.3,45,0.00,,,0.00,WUHU21636XXSP,2013-01-25 06:22:00,
2013-01-24 23:23:00,46.8,26.2,30.15,NW,325,10.6,15.6,45,0.00,,,0.00,WUHU21636XXSP,2013-01-25 06:23:00,
2013-01-24 23:24:00,46.8,26.2,30.15,NW,315,11.6,16.3,45,0.00,,,0.00,WUHU21636XXSP,2013-01-25 06:24:00,
2013-01-24 23:27:00,46.8,26.2,30.15,NNW,337,12.5,16.3,45,0.00,,,0.00,WUHU21636XXSP,2013-01-25 06:27:00,
2013-01-24 23:28:00,46.8,26.2,30.15,NNW,333,10.4,16.3,45,0.00,,,0.00,WUHU21636XXSP,2013-01-25 06:28:00,
2013-01-24 23:29:00,46.9,26.4,30.15,NNW,331,10.5,16.3,45,0.00,,,0.00,WUHU21636XXSP,2013-01-25 06:29:00,
2013-01-24 23:33:00,46.8,26.2,30.15,NW,323,10.5,16.3,45,0.00,,,0.00,WUHU21636XXSP,2013-01-25 06:33:00,
2013-01-24 23:34:00,46.9,26.4,30.16,NNW,331,9.2,15.8,45,0.00,,,0.00,WUHU21636XXSP,2013-01-25 06:34:00,
2013-01-24 23:38:00,46.6,25.5,30.16,North,0,4.6,15.4,44,0.00,,,0.00,WUHU21636XXSP,2013-01-25 06:38:00,
2013-01-24 23:39:00,46.6,25.5,30.16,North,0,4.6,15.4,44,0.00,,,0.00,WUHU21636XXSP,2013-01-25 06:39:00,
2013-01-24 23:43:00,45.9,25.5,30.17,NNW,337,3.3,12.3,45,0.00,,,0.00,WUHU21636XXSP,2013-01-25 06:43:00,
2013-01-24 23:44:00,45.9,25.5,30.17,NNW,337,2.6,12.3,45,0.00,,,0.00,WUHU21636XXSP,2013-01-25 06:44:00,
2013-01-24 23:48:00,45.3,25.0,30.17,NNW,327,9.1,12.5,45,0.00,,,0.00,WUHU21636XXSP,2013-01-25 06:48:00,
2013-01-24 23:49:00,45.1,24.8,30.17,NNW,332,9.8,13.1,45,0.00,,,0.00,WUHU21636XXSP,2013-01-25 06:49:00,
2013-01-24 23:53:00,45.0,25.2,30.17,NNW,337,9.6,13.1,46,0.00,,,0.00,WUHU21636XXSP,2013-01-25 06:53:00,
2013-01-24 23:54:00,45.0,25.2,30.17,NNW,337,11.6,15.8,46,0.00,,,0.00,WUHU21636XXSP,2013-01-25 06:54:00,
2013-01-24 23:55:00,45.0,25.3,30.17,NNW,333,11.8,15.8,46,0.00,,,0.00,WUHU21636XXSP,2013-01-25 06:55:00,
2013-01-24 23:58:00,45.1,25.3,30.17,NNW,337,14.9,19.0,46,0.00,,,0.00,WUHU21636XXSP,2013-01-25 06:58:00,
2013-01-24 23:59:00,45.1,25.3,30.17,NNW,333,13.2,19.0,46,0.00,,,0.00,WUHU21636XXSP,2013-01-25 06:59:00,